Wetterdaten: Freitag, 28.07.2023
Datum Zeit Temp. Aussen Temp. o. S. Temp +5cm Feuchte Auss Luftdruck Regen Sonnenschein Regendauer Solar Windben Empfang
28.07.2023 00:00 17,3 C 16,7 C 13,3 C 98 % 1006,0 hPa 0,0 l/m 0 min 0 min 0 W/m 16,1 km/h (3 Bft) 100,00 %
28.07.2023 00:02 17,3 C 16,7 C 13,3 C 99 % 1006,0 hPa 0,0 l/m 0 min 0 min 0 W/m 12,9 km/h (3 Bft) 100,00 %
28.07.2023 00:04 17,3 C 16,7 C 13,3 C 99 % 1006,1 hPa 0,0 l/m 0 min 0 min 0 W/m 16,1 km/h (3 Bft) 100,00 %
28.07.2023 00:08 17,3 C 16,7 C 13,3 C 99 % 1006,1 hPa 0,0 l/m 0 min 0 min 0 W/m 12,9 km/h (3 Bft) 96,84 %
28.07.2023 00:10 17,3 C 16,7 C 13,3 C 99 % 1006,1 hPa 0,0 l/m 0 min 0 min 0 W/m 19,3 km/h (3 Bft) 97,87 %
28.07.2023 00:12 17,3 C 16,7 C 13,3 C 99 % 1006,0 hPa 0,0 l/m 0 min 0 min 0 W/m 9,7 km/h (2 Bft) 95,74 %
28.07.2023 00:14 17,3 C 16,7 C 13,3 C 99 % 1005,9 hPa 0,0 l/m 0 min 0 min 0 W/m 12,9 km/h (3 Bft) 97,87 %
28.07.2023 00:16 17,3 C 16,7 C 13,3 C 99 % 1005,9 hPa 0,0 l/m 0 min 0 min 0 W/m 22,5 km/h (4 Bft) 95,74 %
28.07.2023 00:18 17,3 C 16,7 C 13,3 C 99 % 1005,9 hPa 0,0 l/m 0 min 0 min 0 W/m 12,9 km/h (3 Bft) 93,62 %
28.07.2023 00:20 17,3 C 16,7 C 13,3 C 99 % 1005,9 hPa 0,0 l/m 0 min 0 min 0 W/m 6,4 km/h (2 Bft) 97,83 %
28.07.2023 00:22 17,3 C 16,7 C 13,3 C 99 % 1005,9 hPa 0,0 l/m 0 min 0 min 0 W/m 22,5 km/h (4 Bft) 97,87 %
28.07.2023 00:24 17,3 C 16,7 C 13,3 C 99 % 1005,7 hPa 0,0 l/m 0 min 0 min 0 W/m 12,9 km/h (3 Bft) 95,74 %
28.07.2023 00:26 17,3 C 16,7 C 13,3 C 99 % 1005,9 hPa 0,0 l/m 0 min 0 min 0 W/m 16,1 km/h (3 Bft) 95,74 %
28.07.2023 00:28 17,2 C 16,7 C 13,3 C 99 % 1005,9 hPa 0,0 l/m 0 min 0 min 0 W/m 16,1 km/h (3 Bft) 97,87 %
28.07.2023 00:30 17,2 C 16,7 C 13,3 C 99 % 1005,8 hPa 0,0 l/m 0 min 0 min 0 W/m 12,9 km/h (3 Bft) 97,87 %
28.07.2023 00:32 17,2 C 16,7 C 13,3 C 99 % 1005,8 hPa 0,0 l/m 0 min 0 min 0 W/m 16,1 km/h (3 Bft) 93,48 %
28.07.2023 00:34 17,2 C 16,7 C 13,3 C 99 % 1005,8 hPa 0,0 l/m 0 min 0 min 0 W/m 6,4 km/h (2 Bft) 95,74 %
28.07.2023 00:36 17,2 C 16,7 C 13,3 C 99 % 1005,8 hPa 0,0 l/m 0 min 0 min 0 W/m 9,7 km/h (2 Bft) 95,74 %
28.07.2023 00:38 17,2 C 16,7 C 13,3 C 99 % 1005,9 hPa 0,0 l/m 0 min 0 min 0 W/m 16,1 km/h (3 Bft) 95,74 %
28.07.2023 00:40 17,2 C 16,7 C 13,3 C 99 % 1005,8 hPa 0,0 l/m 0 min 0 min 0 W/m 12,9 km/h (3 Bft) 95,74 %
28.07.2023 00:42 17,2 C 16,7 C 13,3 C 99 % 1005,8 hPa 0,0 l/m 0 min 0 min 0 W/m 12,9 km/h (3 Bft) 95,74 %
28.07.2023 00:44 17,2 C 16,7 C 13,3 C 99 % 1005,8 hPa 0,0 l/m 0 min 0 min 0 W/m 6,4 km/h (2 Bft) 89,36 %
28.07.2023 00:46 17,2 C 16,7 C 13,3 C 99 % 1005,9 hPa 0,0 l/m 0 min 0 min 0 W/m 12,9 km/h (3 Bft) 95,65 %
28.07.2023 00:48 17,2 C 16,7 C 13,3 C 99 % 1005,9 hPa 0,0 l/m 0 min 0 min 0 W/m 9,7 km/h (2 Bft) 93,62 %
28.07.2023 00:50 17,2 C 16,7 C 13,3 C 99 % 1005,8 hPa 0,0 l/m 0 min 0 min 0 W/m 6,4 km/h (2 Bft) 93,62 %
28.07.2023 00:52 17,2 C 16,7 C 13,3 C 99 % 1005,9 hPa 0,0 l/m 0 min 0 min 0 W/m 6,4 km/h (2 Bft) 95,74 %
28.07.2023 00:54 17,2 C 16,7 C 13,3 C 99 % 1005,9 hPa 0,0 l/m 0 min 0 min 0 W/m 6,4 km/h (2 Bft) 97,87 %
28.07.2023 00:56 17,2 C 16,7 C 13,3 C 99 % 1005,8 hPa 0,0 l/m 0 min 0 min 0 W/m 12,9 km/h (3 Bft) 93,62 %
28.07.2023 00:58 17,2 C 16,7 C 13,3 C 99 % 1005,9 hPa 0,0 l/m 0 min 0 min 0 W/m 12,9 km/h (3 Bft) 95,65 %
28.07.2023 01:00 17,2 C 16,7 C 13,3 C 99 % 1005,9 hPa 0,0 l/m 0 min 0 min 0 W/m 6,4 km/h (2 Bft) 97,87 %
28.07.2023 01:02 17,2 C 16,7 C 13,3 C 99 % 1005,9 hPa 0,0 l/m 0 min 0 min 0 W/m 9,7 km/h (2 Bft) 100,00 %
28.07.2023 01:04 17,2 C 16,7 C 13,3 C 99 % 1005,8 hPa 0,0 l/m 0 min 0 min 0 W/m 6,4 km/h (2 Bft) 100,00 %
28.07.2023 01:06 17,2 C 16,7 C 13,3 C 99 % 1005,8 hPa 0,0 l/m 0 min 0 min 0 W/m 19,3 km/h (3 Bft) 100,00 %
28.07.2023 01:08 17,2 C 16,7 C 13,3 C 99 % 1005,8 hPa 0,0 l/m 0 min 0 min 0 W/m 3,2 km/h (1 Bft) 97,87 %
28.07.2023 01:10 17,2 C 16,7 C 13,3 C 99 % 1005,8 hPa 0,0 l/m 0 min 0 min 0 W/m 6,4 km/h (2 Bft) 97,87 %
28.07.2023 01:12 17,2 C 16,7 C 13,3 C 99 % 1005,8 hPa 0,0 l/m 0 min 0 min 0 W/m 19,3 km/h (3 Bft) 100,00 %
28.07.2023 01:14 17,2 C 16,7 C 13,3 C 99 % 1005,9 hPa 0,0 l/m 0 min 0 min 0 W/m 12,9 km/h (3 Bft) 97,87 %
28.07.2023 01:16 17,2 C 16,7 C 13,3 C 99 % 1005,9 hPa 0,0 l/m 0 min 0 min 0 W/m 12,9 km/h (3 Bft) 97,83 %
28.07.2023 01:18 17,2 C 16,7 C 13,3 C 99 % 1006,0 hPa 0,0 l/m 0 min 0 min 0 W/m 12,9 km/h (3 Bft) 97,87 %
28.07.2023 01:20 17,2 C 16,7 C 13,3 C 99 % 1005,9 hPa 0,0 l/m 0 min 0 min 0 W/m 16,1 km/h (3 Bft) 97,87 %
28.07.2023 01:22 17,2 C 16,7 C 13,3 C 99 % 1005,8 hPa 0,0 l/m 0 min 0 min 0 W/m 9,7 km/h (2 Bft) 97,87 %
28.07.2023 01:24 17,2 C 16,7 C 13,3 C 99 % 1005,9 hPa 0,0 l/m 0 min 0 min 0 W/m 6,4 km/h (2 Bft) 97,87 %
28.07.2023 01:26 17,2 C 16,7 C 13,3 C 99 % 1005,9 hPa 0,0 l/m 0 min 0 min 0 W/m 6,4 km/h (2 Bft) 97,87 %
28.07.2023 01:28 17,2 C 16,7 C 13,3 C 99 % 1005,9 hPa 0,0 l/m 0 min 0 min 0 W/m 12,9 km/h (3 Bft) 97,83 %
28.07.2023 01:30 17,2 C 16,7 C 13,3 C 99 % 1005,9 hPa 0,0 l/m 0 min 0 min 0 W/m 16,1 km/h (3 Bft) 95,74 %
28.07.2023 01:32 17,2 C 16,7 C 13,3 C 99 % 1005,9 hPa 0,0 l/m 0 min 0 min 0 W/m 6,4 km/h (2 Bft) 97,87 %
28.07.2023 01:34 17,2 C 16,7 C 13,3 C 99 % 1005,9 hPa 0,0 l/m 0 min 0 min 0 W/m 19,3 km/h (3 Bft) 97,87 %
28.07.2023 01:36 17,2 C 16,7 C 13,3 C 99 % 1006,0 hPa 0,0 l/m 0 min 0 min 0 W/m 19,3 km/h (3 Bft) 95,74 %
28.07.2023 01:38 17,2 C 16,7 C 13,3 C 99 % 1005,9 hPa 0,0 l/m 0 min 0 min 0 W/m 16,1 km/h (3 Bft) 97,87 %
28.07.2023 01:40 17,2 C 16,7 C 13,3 C 99 % 1005,9 hPa 0,0 l/m 0 min 0 min 0 W/m 12,9 km/h (3 Bft) 97,87 %
28.07.2023 01:42 17,2 C 16,7 C 13,3 C 99 % 1005,8 hPa 0,0 l/m 0 min 0 min 0 W/m 9,7 km/h (2 Bft) 97,83 %
28.07.2023 01:44 17,2 C 16,7 C 13,3 C 99 % 1005,9 hPa 0,0 l/m 0 min 0 min 0 W/m 12,9 km/h (3 Bft) 97,87 %
28.07.2023 01:46 17,2 C 16,7 C 13,3 C 99 % 1005,8 hPa 0,0 l/m 0 min 0 min 0 W/m 12,9 km/h (3 Bft) 95,74 %
28.07.2023 01:48 17,3 C 16,7 C 13,3 C 99 % 1005,9 hPa 0,0 l/m 0 min 0 min 0 W/m 6,4 km/h (2 Bft) 95,74 %
28.07.2023 01:50 17,3 C 16,7 C 13,3 C 99 % 1005,9 hPa 0,0 l/m 0 min 0 min 0 W/m 12,9 km/h (3 Bft) 97,87 %
28.07.2023 01:52 17,3 C 16,7 C 13,3 C 99 % 1006,0 hPa 0,0 l/m 0 min 0 min 0 W/m 16,1 km/h (3 Bft) 95,74 %
28.07.2023 01:54 17,3 C 16,7 C 13,3 C 99 % 1005,9 hPa 0,0 l/m 0 min 0 min 0 W/m 6,4 km/h (2 Bft) 95,65 %
28.07.2023 01:56 17,3 C 16,7 C 13,3 C 99 % 1005,9 hPa 0,0 l/m 0 min 0 min 0 W/m 16,1 km/h (3 Bft) 97,87 %
28.07.2023 01:58 17,3 C 16,7 C 13,3 C 99 % 1006,0 hPa 0,0 l/m 0 min 0 min 0 W/m 12,9 km/h (3 Bft) 97,87 %
28.07.2023 02:00 17,3 C 16,7 C 13,3 C 99 % 1006,0 hPa 0,0 l/m 0 min 0 min 0 W/m 12,9 km/h (3 Bft) 97,87 %
28.07.2023 02:02 17,3 C 16,7 C 13,3 C 99 % 1006,0 hPa 0,0 l/m 0 min 0 min 0 W/m 12,9 km/h (3 Bft) 97,87 %
28.07.2023 02:04 17,3 C 16,7 C 13,3 C 98 % 1006,0 hPa 0,0 l/m 0 min 0 min 0 W/m 12,9 km/h (3 Bft) 97,67 %
28.07.2023 02:06 17,3 C 16,7 C 13,3 C 98 % 1006,0 hPa 0,0 l/m 0 min 0 min 0 W/m 12,9 km/h (3 Bft) 100,00 %
28.07.2023 02:08 17,3 C 16,7 C 13,3 C 98 % 1006,0 hPa 0,0 l/m 0 min 0 min 0 W/m 3,2 km/h (1 Bft) 97,87 %
28.07.2023 02:10 17,3 C 16,7 C 13,3 C 98 % 1006,0 hPa 0,0 l/m 0 min 0 min 0 W/m 9,7 km/h (2 Bft) 97,87 %
28.07.2023 02:12 17,3 C 16,7 C 13,3 C 98 % 1006,0 hPa 0,0 l/m 0 min 0 min 0 W/m 16,1 km/h (3 Bft) 100,00 %
28.07.2023 02:14 17,3 C 16,7 C 13,3 C 98 % 1006,0 hPa 0,0 l/m 0 min 0 min 0 W/m 16,1 km/h (3 Bft) 100,00 %
28.07.2023 02:16 17,3 C 16,7 C 13,3 C 98 % 1006,0 hPa 0,0 l/m 0 min 0 min 0 W/m 9,7 km/h (2 Bft) 100,00 %
28.07.2023 02:18 17,3 C 16,7 C 13,3 C 98 % 1006,0 hPa 0,0 l/m 0 min 0 min 0 W/m 3,2 km/h (1 Bft) 97,87 %
28.07.2023 02:20 17,3 C 16,7 C 13,3 C 98 % 1006,0 hPa 0,0 l/m 0 min 0 min 0 W/m 12,9 km/h (3 Bft) 97,83 %
28.07.2023 02:22 17,3 C 16,7 C 13,3 C 98 % 1006,0 hPa 0,0 l/m 0 min 0 min 0 W/m 16,1 km/h (3 Bft) 100,00 %
28.07.2023 02:24 17,3 C 16,7 C 13,3 C 98 % 1005,9 hPa 0,0 l/m 0 min 0 min 0 W/m 16,1 km/h (3 Bft) 97,87 %
28.07.2023 02:26 17,3 C 16,7 C 13,3 C 98 % 1005,9 hPa 0,0 l/m 0 min 0 min 0 W/m 16,1 km/h (3 Bft) 93,62 %
28.07.2023 02:28 17,3 C 16,7 C 13,3 C 98 % 1005,9 hPa 0,0 l/m 0 min 0 min 0 W/m 12,9 km/h (3 Bft) 97,87 %
28.07.2023 02:30 17,3 C 16,7 C 13,3 C 98 % 1005,9 hPa 0,0 l/m 0 min 0 min 0 W/m 16,1 km/h (3 Bft) 91,49 %
28.07.2023 02:32 17,3 C 16,7 C 13,3 C 98 % 1005,9 hPa 0,0 l/m 0 min 0 min 0 W/m 9,7 km/h (2 Bft) 97,83 %
28.07.2023 02:34 17,3 C 16,7 C 13,3 C 98 % 1005,9 hPa 0,0 l/m 0 min 0 min 0 W/m 6,4 km/h (2 Bft) 97,87 %
28.07.2023 02:36 17,3 C 16,7 C 13,3 C 98 % 1005,8 hPa 0,0 l/m 0 min 0 min 0 W/m 16,1 km/h (3 Bft) 97,87 %
28.07.2023 02:38 17,3 C 16,7 C 13,3 C 98 % 1005,8 hPa 0,0 l/m 0 min 0 min 0 W/m 12,9 km/h (3 Bft) 97,87 %
28.07.2023 02:40 17,3 C 16,7 C 13,3 C 98 % 1005,8 hPa 0,0 l/m 0 min 0 min 0 W/m 12,9 km/h (3 Bft) 97,87 %
28.07.2023 02:42 17,3 C 16,7 C 13,3 C 98 % 1005,9 hPa 0,0 l/m 0 min 0 min 0 W/m 12,9 km/h (3 Bft) 93,62 %
28.07.2023 02:44 17,3 C 16,7 C 13,3 C 98 % 1005,8 hPa 0,0 l/m 0 min 0 min 0 W/m 9,7 km/h (2 Bft) 97,87 %
28.07.2023 02:46 17,3 C 16,7 C 13,3 C 98 % 1005,9 hPa 0,0 l/m 0 min 0 min 0 W/m 12,9 km/h (3 Bft) 95,65 %
28.07.2023 02:48 17,3 C 16,7 C 13,3 C 98 % 1005,9 hPa 0,0 l/m 0 min 0 min 0 W/m 6,4 km/h (2 Bft) 97,87 %
28.07.2023 02:50 17,3 C 16,7 C 13,3 C 98 % 1005,8 hPa 0,0 l/m 0 min 0 min 0 W/m 6,4 km/h (2 Bft) 97,87 %
28.07.2023 02:52 17,3 C 16,7 C 13,3 C 98 % 1005,8 hPa 0,0 l/m 0 min 0 min 0 W/m 9,7 km/h (2 Bft) 95,74 %
28.07.2023 02:54 17,3 C 16,7 C 13,3 C 98 % 1005,9 hPa 0,0 l/m 0 min 0 min 0 W/m 12,9 km/h (3 Bft) 95,74 %
28.07.2023 02:56 17,3 C 16,7 C 13,3 C 98 % 1005,9 hPa 0,0 l/m 0 min 0 min 0 W/m 6,4 km/h (2 Bft) 100,00 %
28.07.2023 02:58 17,3 C 16,7 C 13,3 C 98 % 1005,9 hPa 0,0 l/m 0 min 0 min 0 W/m 12,9 km/h (3 Bft) 95,74 %
28.07.2023 03:00 17,3 C 16,7 C 13,3 C 99 % 1005,8 hPa 0,0 l/m 0 min 0 min 0 W/m 6,4 km/h (2 Bft) 97,83 %
28.07.2023 03:02 17,3 C 16,7 C 13,3 C 99 % 1005,9 hPa 0,0 l/m 0 min 0 min 0 W/m 6,4 km/h (2 Bft) 93,62 %
28.07.2023 03:04 17,3 C 16,7 C 13,3 C 99 % 1005,9 hPa 0,0 l/m 0 min 0 min 0 W/m 12,9 km/h (3 Bft) 95,92 %
28.07.2023 03:06 17,3 C 16,7 C 13,3 C 99 % 1005,8 hPa 0,0 l/m 0 min 0 min 0 W/m 6,4 km/h (2 Bft) 95,74 %
28.07.2023 03:08 17,3 C 16,7 C 13,3 C 99 % 1005,9 hPa 0,0 l/m 0 min 0 min 0 W/m 12,9 km/h (3 Bft) 97,87 %
28.07.2023 03:10 17,3 C 16,7 C 13,3 C 99 % 1005,8 hPa 0,0 l/m 0 min 0 min 0 W/m 12,9 km/h (3 Bft) 93,62 %
28.07.2023 03:12 17,3 C 16,7 C 13,3 C 99 % 1005,9 hPa 0,0 l/m 0 min 0 min 0 W/m 12,9 km/h (3 Bft) 97,83 %
28.07.2023 03:14 17,3 C 16,7 C 13,3 C 99 % 1005,9 hPa 0,0 l/m 0 min 0 min 0 W/m 6,4 km/h (2 Bft) 97,87 %
28.07.2023 03:16 17,3 C 16,7 C 13,3 C 99 % 1005,9 hPa 0,0 l/m 0 min 0 min 0 W/m 6,4 km/h (2 Bft) 97,87 %
28.07.2023 03:18 17,3 C 16,7 C 13,3 C 99 % 1006,0 hPa 0,0 l/m 0 min 0 min 0 W/m 3,2 km/h (1 Bft) 97,87 %
28.07.2023 03:20 17,3 C 16,7 C 13,3 C 99 % 1005,9 hPa 0,0 l/m 0 min 0 min 0 W/m 6,4 km/h (2 Bft) 97,87 %
28.07.2023 03:22 17,3 C 16,7 C 13,3 C 99 % 1005,9 hPa 0,0 l/m 0 min 0 min 0 W/m 3,2 km/h (1 Bft) 95,74 %
28.07.2023 03:24 17,3 C 16,7 C 13,3 C 99 % 1005,9 hPa 0,0 l/m 0 min 0 min 0 W/m 6,4 km/h (2 Bft) 97,56 %
28.07.2023 03:26 17,3 C 16,7 C 13,3 C 99 % 1005,8 hPa 0,0 l/m 0 min 0 min 0 W/m 3,2 km/h (1 Bft) 57,45 %
28.07.2023 03:28 17,3 C 16,7 C 13,3 C 99 % 1005,9 hPa 0,0 l/m 0 min 0 min 0 W/m 3,2 km/h (1 Bft) 100,00 %
28.07.2023 03:30 17,3 C 16,7 C 13,3 C 99 % 1005,8 hPa 0,0 l/m 0 min 0 min 0 W/m 6,4 km/h (2 Bft) 97,87 %
28.07.2023 03:32 17,3 C 16,7 C 13,3 C 99 % 1005,9 hPa 0,0 l/m 0 min 0 min 0 W/m 12,9 km/h (3 Bft) 97,87 %
28.07.2023 03:34 17,3 C 16,7 C 13,3 C 99 % 1005,9 hPa 0,0 l/m 0 min 0 min 0 W/m 12,9 km/h (3 Bft) 97,87 %
28.07.2023 03:36 17,3 C 16,7 C 13,3 C 99 % 1005,9 hPa 0,0 l/m 0 min 0 min 0 W/m 3,2 km/h (1 Bft) 97,87 %
28.07.2023 03:38 17,3 C 16,7 C 13,3 C 99 % 1005,9 hPa 0,0 l/m 0 min 0 min 0 W/m 0,0 km/h (0 Bft) 97,87 %
28.07.2023 03:40 17,3 C 16,7 C 13,3 C 99 % 1005,9 hPa 0,0 l/m 0 min 0 min 0 W/m 0,0 km/h (0 Bft) 97,83 %
28.07.2023 03:42 17,3 C 16,7 C 13,3 C 99 % 1005,8 hPa 0,0 l/m 0 min 0 min 0 W/m 6,4 km/h (2 Bft) 95,74 %
28.07.2023 03:44 17,3 C 16,7 C 13,3 C 99 % 1005,9 hPa 0,0 l/m 0 min 0 min 0 W/m 9,7 km/h (2 Bft) 95,74 %
28.07.2023 03:46 17,3 C 16,7 C 13,3 C 99 % 1005,9 hPa 0,0 l/m 0 min 0 min 0 W/m 9,7 km/h (2 Bft) 100,00 %
28.07.2023 03:48 17,3 C 16,7 C 13,3 C 99 % 1005,9 hPa 0,0 l/m 0 min 0 min 0 W/m 3,2 km/h (1 Bft) 97,87 %
28.07.2023 03:50 17,3 C 16,7 C 13,3 C 99 % 1005,8 hPa 0,0 l/m 0 min 0 min 0 W/m 6,4 km/h (2 Bft) 100,00 %
28.07.2023 03:52 17,3 C 16,7 C 13,3 C 99 % 1005,9 hPa 0,0 l/m 0 min 0 min 0 W/m 3,2 km/h (1 Bft) 100,00 %
28.07.2023 03:54 17,3 C 16,7 C 13,3 C 99 % 1005,8 hPa 0,0 l/m 0 min 0 min 0 W/m 6,4 km/h (2 Bft) 100,00 %
28.07.2023 03:56 17,3 C 16,7 C 13,3 C 99 % 1005,8 hPa 0,0 l/m 0 min 0 min 0 W/m 9,7 km/h (2 Bft) 97,87 %
28.07.2023 03:58 17,3 C 16,7 C 13,3 C 99 % 1005,9 hPa 0,0 l/m 0 min 0 min 0 W/m 6,4 km/h (2 Bft) 100,00 %
28.07.2023 04:00 17,3 C 16,7 C 13,3 C 99 % 1005,9 hPa 0,0 l/m 0 min 0 min 0 W/m 6,4 km/h (2 Bft) 97,87 %
28.07.2023 04:05 17,3 C 16,7 C 13,3 C 99 % 1005,8 hPa 0,0 l/m 0 min 0 min 0 W/m 9,7 km/h (2 Bft) 100,00 %
28.07.2023 04:06 17,3 C 16,7 C 13,3 C 99 % 1005,7 hPa 0,0 l/m 0 min 0 min 0 W/m 6,4 km/h (2 Bft) 96,30 %
28.07.2023 04:08 17,3 C 16,7 C 13,3 C 99 % 1005,8 hPa 0,0 l/m 0 min 2 min 0 W/m 9,7 km/h (2 Bft) 97,92 %
28.07.2023 04:10 17,3 C 16,1 C 13,3 C 99 % 1005,8 hPa 0,0 l/m 0 min 2 min 0 W/m 6,4 km/h (2 Bft) 97,87 %
28.07.2023 04:12 17,3 C 16,1 C 13,3 C 99 % 1005,8 hPa 0,0 l/m 0 min 0 min 0 W/m 12,9 km/h (3 Bft) 95,74 %
28.07.2023 04:14 17,3 C 16,1 C 13,3 C 99 % 1005,8 hPa 0,0 l/m 0 min 0 min 0 W/m 6,4 km/h (2 Bft) 95,74 %
28.07.2023 04:16 17,3 C 16,1 C 13,3 C 99 % 1005,8 hPa 0,2 l/m 0 min 0 min 0 W/m 6,4 km/h (2 Bft) 95,74 %
28.07.2023 04:18 17,3 C 16,1 C 13,3 C 99 % 1005,8 hPa 0,0 l/m 0 min 0 min 0 W/m 6,4 km/h (2 Bft) 95,65 %
28.07.2023 04:20 17,3 C 16,1 C 13,3 C 99 % 1005,8 hPa 0,0 l/m 0 min 0 min 0 W/m 6,4 km/h (2 Bft) 95,74 %
28.07.2023 04:22 17,3 C 16,7 C 13,3 C 99 % 1005,8 hPa 0,0 l/m 0 min 0 min 0 W/m 3,2 km/h (1 Bft) 93,62 %
28.07.2023 04:24 17,3 C 16,7 C 13,3 C 99 % 1005,9 hPa 0,0 l/m 0 min 0 min 0 W/m 3,2 km/h (1 Bft) 95,74 %
28.07.2023 04:26 17,3 C 16,7 C 13,3 C 99 % 1005,8 hPa 0,0 l/m 0 min 0 min 0 W/m 9,7 km/h (2 Bft) 95,74 %
28.07.2023 04:28 17,3 C 16,7 C 13,3 C 99 % 1005,9 hPa 0,0 l/m 0 min 0 min 0 W/m 6,4 km/h (2 Bft) 93,62 %
28.07.2023 04:30 17,3 C 16,7 C 13,3 C 99 % 1005,9 hPa 0,0 l/m 0 min 0 min 0 W/m 6,4 km/h (2 Bft) 93,62 %
28.07.2023 04:32 17,3 C 16,7 C 13,3 C 99 % 1005,9 hPa 0,0 l/m 0 min 0 min 0 W/m 3,2 km/h (1 Bft) 95,65 %
28.07.2023 04:34 17,3 C 16,7 C 13,3 C 99 % 1005,8 hPa 0,0 l/m 0 min 0 min 0 W/m 3,2 km/h (1 Bft) 95,74 %
28.07.2023 04:36 17,3 C 16,7 C 13,3 C 99 % 1005,9 hPa 0,0 l/m 0 min 0 min 0 W/m 6,4 km/h (2 Bft) 93,62 %
28.07.2023 04:38 17,3 C 16,7 C 13,3 C 99 % 1005,9 hPa 0,0 l/m 0 min 0 min 0 W/m 6,4 km/h (2 Bft) 95,74 %
28.07.2023 04:40 17,3 C 16,7 C 13,3 C 99 % 1005,9 hPa 0,0 l/m 0 min 0 min 0 W/m 12,9 km/h (3 Bft) 93,62 %
28.07.2023 04:42 17,3 C 16,7 C 13,3 C 99 % 1006,0 hPa 0,0 l/m 0 min 0 min 0 W/m 3,2 km/h (1 Bft) 93,62 %
28.07.2023 04:44 17,3 C 16,7 C 13,3 C 99 % 1005,9 hPa 0,0 l/m 0 min 0 min 0 W/m 6,4 km/h (2 Bft) 93,48 %
28.07.2023 04:46 17,3 C 16,7 C 13,3 C 99 % 1005,9 hPa 0,0 l/m 0 min 0 min 0 W/m 3,2 km/h (1 Bft) 93,62 %
28.07.2023 04:48 17,3 C 16,7 C 13,3 C 99 % 1005,9 hPa 0,0 l/m 0 min 0 min 0 W/m 6,4 km/h (2 Bft) 95,74 %
28.07.2023 04:50 17,3 C 16,7 C 13,3 C 99 % 1005,9 hPa 0,0 l/m 0 min 0 min 0 W/m 6,4 km/h (2 Bft) 97,87 %
28.07.2023 04:52 17,3 C 16,7 C 13,3 C 99 % 1005,9 hPa 0,0 l/m 0 min 0 min 0 W/m 6,4 km/h (2 Bft) 97,87 %
28.07.2023 04:54 17,3 C 16,7 C 13,3 C 99 % 1006,0 hPa 0,0 l/m 0 min 0 min 0 W/m 3,2 km/h (1 Bft) 97,87 %
28.07.2023 04:56 17,3 C 16,7 C 13,3 C 99 % 1006,0 hPa 0,0 l/m 0 min 0 min 0 W/m 6,4 km/h (2 Bft) 100,00 %
28.07.2023 04:58 17,3 C 16,7 C 13,3 C 99 % 1006,0 hPa 0,0 l/m 0 min 0 min 0 W/m 3,2 km/h (1 Bft) 97,83 %
28.07.2023 05:00 17,3 C 16,7 C 13,3 C 99 % 1006,0 hPa 0,0 l/m 0 min 0 min 0 W/m 12,9 km/h (3 Bft) 95,74 %
28.07.2023 05:02 17,3 C 16,7 C 13,3 C 99 % 1006,2 hPa 0,0 l/m 0 min 0 min 0 W/m 6,4 km/h (2 Bft) 100,00 %
28.07.2023 05:04 17,3 C 16,7 C 13,3 C 99 % 1006,2 hPa 0,0 l/m 0 min 0 min 0 W/m 6,4 km/h (2 Bft) 100,00 %
28.07.2023 05:06 17,3 C 16,7 C 13,3 C 99 % 1006,2 hPa 0,0 l/m 0 min 0 min 0 W/m 9,7 km/h (2 Bft) 100,00 %
28.07.2023 05:08 17,3 C 16,7 C 13,3 C 99 % 1006,1 hPa 0,0 l/m 0 min 0 min 0 W/m 3,2 km/h (1 Bft) 97,87 %
28.07.2023 05:10 17,3 C 16,7 C 13,9 C 99 % 1006,2 hPa 0,0 l/m 0 min 0 min 0 W/m 6,4 km/h (2 Bft) 100,00 %
28.07.2023 05:12 17,3 C 16,7 C 13,3 C 99 % 1006,1 hPa 0,0 l/m 0 min 0 min 0 W/m 3,2 km/h (1 Bft) 100,00 %
28.07.2023 05:14 17,3 C 16,7 C 13,3 C 99 % 1006,2 hPa 0,0 l/m 0 min 0 min 0 W/m 3,2 km/h (1 Bft) 100,00 %
28.07.2023 05:16 17,3 C 16,7 C 13,9 C 99 % 1006,2 hPa 0,0 l/m 0 min 0 min 0 W/m 3,2 km/h (1 Bft) 100,00 %
28.07.2023 05:18 17,3 C 16,7 C 13,9 C 99 % 1006,2 hPa 0,0 l/m 0 min 0 min 0 W/m 3,2 km/h (1 Bft) 94,29 %
28.07.2023 05:20 17,3 C 16,7 C 13,9 C 99 % 1006,2 hPa 0,0 l/m 0 min 0 min 0 W/m 3,2 km/h (1 Bft) 100,00 %
28.07.2023 05:22 17,3 C 16,7 C 13,3 C 99 % 1006,2 hPa 0,0 l/m 0 min 0 min 0 W/m 6,4 km/h (2 Bft) 100,00 %
28.07.2023 05:24 17,3 C 16,7 C 13,3 C 99 % 1006,2 hPa 0,0 l/m 0 min 0 min 0 W/m 6,4 km/h (2 Bft) 100,00 %
28.07.2023 05:26 17,4 C 16,7 C 13,3 C 99 % 1006,2 hPa 0,0 l/m 0 min 0 min 0 W/m 3,2 km/h (1 Bft) 100,00 %
28.07.2023 05:28 17,4 C 16,7 C 13,9 C 99 % 1006,2 hPa 0,0 l/m 0 min 0 min 0 W/m 6,4 km/h (2 Bft) 97,87 %
28.07.2023 05:30 17,4 C 16,7 C 13,3 C 99 % 1006,2 hPa 0,0 l/m 0 min 0 min 0 W/m 6,4 km/h (2 Bft) 100,00 %
28.07.2023 05:32 17,4 C 16,7 C 13,9 C 99 % 1006,2 hPa 0,0 l/m 0 min 0 min 0 W/m 3,2 km/h (1 Bft) 100,00 %
28.07.2023 05:34 17,4 C 16,7 C 13,9 C 99 % 1006,2 hPa 0,0 l/m 0 min 0 min 0 W/m 0,0 km/h (0 Bft) 97,87 %
28.07.2023 05:36 17,4 C 16,7 C 13,9 C 99 % 1006,2 hPa 0,0 l/m 0 min 0 min 0 W/m 3,2 km/h (1 Bft) 100,00 %
28.07.2023 05:38 17,4 C 16,7 C 13,9 C 99 % 1006,2 hPa 0,0 l/m 0 min 0 min 0 W/m 0,0 km/h (0 Bft) 97,87 %
28.07.2023 05:40 17,4 C 16,7 C 13,9 C 99 % 1006,2 hPa 0,0 l/m 0 min 0 min 0 W/m 3,2 km/h (1 Bft) 100,00 %
28.07.2023 05:42 17,4 C 16,7 C 13,9 C 99 % 1006,2 hPa 0,0 l/m 0 min 0 min 0 W/m 3,2 km/h (1 Bft) 100,00 %
28.07.2023 05:44 17,4 C 16,7 C 13,9 C 99 % 1006,2 hPa 0,0 l/m 0 min 2 min 0 W/m 3,2 km/h (1 Bft) 100,00 %
28.07.2023 05:46 17,4 C 16,7 C 13,9 C 99 % 1006,2 hPa 0,0 l/m 0 min 2 min 0 W/m 0,0 km/h (0 Bft) 100,00 %
28.07.2023 05:48 17,4 C 16,7 C 13,9 C 99 % 1006,2 hPa 0,0 l/m 0 min 0 min 0 W/m 6,4 km/h (2 Bft) 97,87 %
28.07.2023 05:50 17,4 C 16,7 C 13,9 C 99 % 1006,3 hPa 0,2 l/m 0 min 2 min 0 W/m 6,4 km/h (2 Bft) 100,00 %
28.07.2023 05:52 17,4 C 16,7 C 13,9 C 100 % 1006,3 hPa 0,0 l/m 0 min 0 min 0 W/m 6,4 km/h (2 Bft) 97,87 %
28.07.2023 05:54 17,4 C 16,7 C 13,9 C 100 % 1006,3 hPa 0,0 l/m 0 min 0 min 0 W/m 3,2 km/h (1 Bft) 97,83 %
28.07.2023 05:56 17,4 C 16,7 C 13,9 C 100 % 1006,4 hPa 0,0 l/m 0 min 2 min 0 W/m 3,2 km/h (1 Bft) 97,87 %
28.07.2023 05:58 17,4 C 16,7 C 13,9 C 100 % 1006,4 hPa 0,0 l/m 0 min 2 min 0 W/m 3,2 km/h (1 Bft) 97,87 %
28.07.2023 06:00 17,4 C 16,7 C 13,9 C 100 % 1006,4 hPa 0,0 l/m 0 min 0 min 0 W/m 3,2 km/h (1 Bft) 97,87 %
28.07.2023 06:02 17,4 C 16,7 C 13,9 C 100 % 1006,4 hPa 0,0 l/m 0 min 0 min 0 W/m 6,4 km/h (2 Bft) 95,74 %
28.07.2023 06:04 17,4 C 16,7 C 13,9 C 100 % 1006,4 hPa 0,0 l/m 0 min 0 min 0 W/m 3,2 km/h (1 Bft) 95,74 %
28.07.2023 06:08 17,4 C 16,7 C 13,9 C 100 % 1006,3 hPa 0,0 l/m 0 min 0 min 0 W/m 3,2 km/h (1 Bft) 96,88 %
28.07.2023 06:10 17,4 C 16,7 C 13,9 C 100 % 1006,3 hPa 0,0 l/m 0 min 0 min 0 W/m 6,4 km/h (2 Bft) 95,74 %
28.07.2023 06:12 17,4 C 16,7 C 13,9 C 100 % 1006,2 hPa 0,2 l/m 0 min 0 min 0 W/m 3,2 km/h (1 Bft) 95,74 %
28.07.2023 06:14 17,4 C 16,7 C 13,9 C 100 % 1006,3 hPa 0,0 l/m 0 min 0 min 4 W/m 3,2 km/h (1 Bft) 95,74 %
28.07.2023 06:16 17,4 C 16,7 C 13,9 C 100 % 1006,3 hPa 0,0 l/m 0 min 0 min 5 W/m 6,4 km/h (2 Bft) 95,74 %
28.07.2023 06:18 17,4 C 16,7 C 13,9 C 100 % 1006,3 hPa 0,0 l/m 0 min 0 min 6 W/m 6,4 km/h (2 Bft) 95,74 %
28.07.2023 06:20 17,4 C 16,7 C 13,9 C 100 % 1006,3 hPa 0,0 l/m 0 min 0 min 7 W/m 3,2 km/h (1 Bft) 95,65 %
28.07.2023 06:22 17,4 C 16,7 C 13,9 C 100 % 1006,3 hPa 0,0 l/m 0 min 0 min 8 W/m 3,2 km/h (1 Bft) 93,62 %
28.07.2023 06:24 17,4 C 16,7 C 13,9 C 100 % 1006,3 hPa 0,0 l/m 0 min 0 min 9 W/m 3,2 km/h (1 Bft) 95,74 %
28.07.2023 06:26 17,4 C 16,7 C 13,9 C 100 % 1006,3 hPa 0,0 l/m 0 min 0 min 9 W/m 6,4 km/h (2 Bft) 95,74 %
28.07.2023 06:28 17,4 C 16,7 C 13,9 C 100 % 1006,3 hPa 0,0 l/m 0 min 0 min 9 W/m 9,7 km/h (2 Bft) 95,74 %
28.07.2023 06:30 17,4 C 16,7 C 13,9 C 100 % 1006,3 hPa 0,0 l/m 0 min 0 min 11 W/m 6,4 km/h (2 Bft) 93,62 %
28.07.2023 06:32 17,4 C 16,7 C 13,9 C 100 % 1006,3 hPa 0,0 l/m 0 min 0 min 15 W/m 6,4 km/h (2 Bft) 93,48 %
28.07.2023 06:34 17,4 C 16,7 C 13,9 C 100 % 1006,4 hPa 0,0 l/m 0 min 0 min 19 W/m 6,4 km/h (2 Bft) 95,74 %
28.07.2023 06:36 17,4 C 16,7 C 13,9 C 100 % 1006,4 hPa 0,0 l/m 0 min 0 min 22 W/m 3,2 km/h (1 Bft) 95,74 %
28.07.2023 06:38 17,5 C 16,7 C 13,9 C 100 % 1006,4 hPa 0,0 l/m 0 min 0 min 26 W/m 6,4 km/h (2 Bft) 95,74 %
28.07.2023 06:40 17,5 C 16,7 C 13,9 C 100 % 1006,4 hPa 0,0 l/m 0 min 0 min 26 W/m 6,4 km/h (2 Bft) 93,62 %
28.07.2023 06:42 17,5 C 16,7 C 13,9 C 100 % 1006,4 hPa 0,0 l/m 0 min 0 min 29 W/m 3,2 km/h (1 Bft) 97,87 %
28.07.2023 06:44 17,5 C 16,7 C 13,9 C 100 % 1006,4 hPa 0,0 l/m 0 min 0 min 36 W/m 6,4 km/h (2 Bft) 100,00 %
28.07.2023 06:46 17,5 C 16,7 C 13,9 C 100 % 1006,4 hPa 0,0 l/m 0 min 0 min 36 W/m 6,4 km/h (2 Bft) 97,83 %
28.07.2023 06:48 17,6 C 16,7 C 13,9 C 100 % 1006,4 hPa 0,0 l/m 0 min 0 min 33 W/m 6,4 km/h (2 Bft) 100,00 %
28.07.2023 06:50 17,6 C 16,7 C 13,9 C 100 % 1006,4 hPa 0,0 l/m 0 min 0 min 32 W/m 6,4 km/h (2 Bft) 100,00 %
28.07.2023 06:52 17,6 C 16,7 C 13,9 C 100 % 1006,4 hPa 0,0 l/m 0 min 0 min 33 W/m 6,4 km/h (2 Bft) 100,00 %
28.07.2023 06:54 17,6 C 16,7 C 13,9 C 100 % 1006,4 hPa 0,0 l/m 0 min 0 min 37 W/m 6,4 km/h (2 Bft) 100,00 %
28.07.2023 06:56 17,6 C 16,7 C 13,9 C 100 % 1006,5 hPa 0,0 l/m 0 min 0 min 38 W/m 6,4 km/h (2 Bft) 100,00 %
28.07.2023 06:58 17,6 C 16,7 C 13,9 C 100 % 1006,4 hPa 0,0 l/m 0 min 0 min 40 W/m 6,4 km/h (2 Bft) 97,83 %
28.07.2023 07:00 17,6 C 16,7 C 13,9 C 100 % 1006,4 hPa 0,0 l/m 0 min 0 min 40 W/m 3,2 km/h (1 Bft) 95,74 %
28.07.2023 07:02 17,6 C 17,2 C 13,9 C 100 % 1006,4 hPa 0,0 l/m 0 min 0 min 43 W/m 6,4 km/h (2 Bft) 95,74 %
28.07.2023 07:04 17,6 C 17,2 C 13,9 C 100 % 1006,5 hPa 0,0 l/m 0 min 0 min 37 W/m 3,2 km/h (1 Bft) 97,87 %
28.07.2023 07:06 17,6 C 17,2 C 13,9 C 100 % 1006,4 hPa 0,0 l/m 0 min 0 min 39 W/m 3,2 km/h (1 Bft) 98,31 %
28.07.2023 07:08 17,7 C 17,2 C 13,9 C 100 % 1006,4 hPa 0,0 l/m 0 min 0 min 49 W/m 3,2 km/h (1 Bft) 97,14 %
28.07.2023 07:10 17,7 C 17,2 C 13,9 C 100 % 1006,5 hPa 0,0 l/m 0 min 0 min 42 W/m 6,4 km/h (2 Bft) 97,87 %
28.07.2023 07:12 17,7 C 17,2 C 13,9 C 100 % 1006,5 hPa 0,0 l/m 0 min 0 min 38 W/m 12,9 km/h (3 Bft) 97,83 %
28.07.2023 07:14 17,7 C 17,2 C 13,9 C 100 % 1006,5 hPa 0,0 l/m 0 min 0 min 40 W/m 6,4 km/h (2 Bft) 97,87 %
28.07.2023 07:16 17,7 C 17,2 C 13,9 C 100 % 1006,5 hPa 0,0 l/m 0 min 0 min 40 W/m 6,4 km/h (2 Bft) 97,87 %
28.07.2023 07:18 17,7 C 17,2 C 13,9 C 100 % 1006,5 hPa 0,0 l/m 0 min 0 min 53 W/m 6,4 km/h (2 Bft) 95,74 %
28.07.2023 07:20 17,7 C 17,2 C 13,9 C 100 % 1006,6 hPa 0,0 l/m 0 min 0 min 53 W/m 9,7 km/h (2 Bft) 95,74 %
28.07.2023 07:22 17,7 C 17,2 C 13,9 C 100 % 1006,6 hPa 0,0 l/m 0 min 0 min 49 W/m 6,4 km/h (2 Bft) 95,74 %
28.07.2023 07:24 17,7 C 17,2 C 13,9 C 100 % 1006,7 hPa 0,0 l/m 0 min 0 min 53 W/m 6,4 km/h (2 Bft) 97,87 %
28.07.2023 07:26 17,7 C 17,2 C 14,4 C 100 % 1006,7 hPa 0,0 l/m 0 min 0 min 46 W/m 6,4 km/h (2 Bft) 97,83 %
28.07.2023 07:28 17,7 C 17,2 C 13,9 C 100 % 1006,7 hPa 0,0 l/m 0 min 0 min 39 W/m 6,4 km/h (2 Bft) 95,74 %
28.07.2023 07:30 17,7 C 17,2 C 13,9 C 100 % 1006,7 hPa 0,0 l/m 0 min 0 min 42 W/m 6,4 km/h (2 Bft) 97,87 %
28.07.2023 07:32 17,7 C 17,2 C 13,9 C 100 % 1006,8 hPa 0,0 l/m 0 min 0 min 46 W/m 6,4 km/h (2 Bft) 97,87 %
28.07.2023 07:34 17,8 C 17,2 C 13,9 C 100 % 1006,8 hPa 0,0 l/m 0 min 0 min 52 W/m 6,4 km/h (2 Bft) 95,74 %
28.07.2023 07:36 17,8 C 17,2 C 14,4 C 100 % 1006,8 hPa 0,0 l/m 0 min 0 min 53 W/m 6,4 km/h (2 Bft) 95,74 %
28.07.2023 07:38 17,8 C 17,2 C 14,4 C 100 % 1006,8 hPa 0,0 l/m 0 min 0 min 54 W/m 12,9 km/h (3 Bft) 97,87 %
28.07.2023 07:40 17,8 C 17,2 C 14,4 C 100 % 1006,9 hPa 0,0 l/m 0 min 0 min 58 W/m 6,4 km/h (2 Bft) 95,65 %
28.07.2023 07:42 17,8 C 17,2 C 14,4 C 100 % 1006,8 hPa 0,0 l/m 0 min 0 min 52 W/m 3,2 km/h (1 Bft) 97,87 %
28.07.2023 07:44 17,8 C 17,2 C 14,4 C 100 % 1006,8 hPa 0,0 l/m 0 min 0 min 50 W/m 6,4 km/h (2 Bft) 97,87 %
28.07.2023 07:46 17,8 C 17,2 C 14,4 C 100 % 1006,8 hPa 0,0 l/m 0 min 0 min 57 W/m 3,2 km/h (1 Bft) 97,87 %
28.07.2023 07:48 17,8 C 17,2 C 14,4 C 100 % 1006,9 hPa 0,0 l/m 0 min 0 min 53 W/m 6,4 km/h (2 Bft) 100,00 %
28.07.2023 07:50 17,8 C 17,2 C 14,4 C 100 % 1006,8 hPa 0,0 l/m 0 min 0 min 46 W/m 6,4 km/h (2 Bft) 97,87 %
28.07.2023 07:52 17,8 C 17,2 C 14,4 C 100 % 1006,9 hPa 0,0 l/m 0 min 0 min 46 W/m 0,0 km/h (0 Bft) 97,83 %
28.07.2023 07:54 17,9 C 17,2 C 14,4 C 100 % 1006,9 hPa 0,0 l/m 0 min 0 min 44 W/m 6,4 km/h (2 Bft) 95,74 %
28.07.2023 07:56 17,8 C 17,2 C 14,4 C 100 % 1006,9 hPa 0,0 l/m 0 min 0 min 43 W/m 9,7 km/h (2 Bft) 100,00 %
28.07.2023 07:58 17,8 C 17,2 C 14,4 C 100 % 1007,0 hPa 0,0 l/m 0 min 0 min 46 W/m 6,4 km/h (2 Bft) 93,62 %
28.07.2023 08:00 17,8 C 17,2 C 14,4 C 100 % 1007,0 hPa 0,0 l/m 0 min 0 min 54 W/m 6,4 km/h (2 Bft) 100,00 %
28.07.2023 08:02 17,8 C 17,2 C 14,4 C 100 % 1006,9 hPa 0,0 l/m 0 min 0 min 56 W/m 6,4 km/h (2 Bft) 95,74 %
28.07.2023 08:04 17,9 C 17,2 C 14,4 C 100 % 1007,0 hPa 0,0 l/m 0 min 0 min 58 W/m 3,2 km/h (1 Bft) 97,83 %
28.07.2023 08:06 17,9 C 17,2 C 14,4 C 100 % 1007,0 hPa 0,0 l/m 0 min 0 min 83 W/m 6,4 km/h (2 Bft) 98,31 %
28.07.2023 08:08 17,9 C 17,2 C 14,4 C 100 % 1007,0 hPa 0,0 l/m 0 min 0 min 96 W/m 9,7 km/h (2 Bft) 97,14 %
28.07.2023 08:10 17,9 C 17,8 C 14,4 C 100 % 1007,0 hPa 0,0 l/m 0 min 0 min 93 W/m 12,9 km/h (3 Bft) 95,74 %
28.07.2023 08:12 17,9 C 17,2 C 14,4 C 100 % 1007,1 hPa 0,0 l/m 0 min 0 min 85 W/m 6,4 km/h (2 Bft) 97,87 %
28.07.2023 08:14 17,9 C 17,8 C 14,4 C 100 % 1007,0 hPa 0,0 l/m 0 min 0 min 75 W/m 6,4 km/h (2 Bft) 97,87 %
28.07.2023 08:16 17,9 C 17,8 C 14,4 C 100 % 1007,1 hPa 0,0 l/m 0 min 0 min 72 W/m 9,7 km/h (2 Bft) 93,62 %
28.07.2023 08:18 17,9 C 17,8 C 14,4 C 100 % 1007,1 hPa 0,0 l/m 0 min 0 min 73 W/m 12,9 km/h (3 Bft) 97,83 %
28.07.2023 08:20 17,9 C 17,8 C 14,4 C 100 % 1007,0 hPa 0,0 l/m 0 min 0 min 62 W/m 3,2 km/h (1 Bft) 97,87 %
28.07.2023 08:22 18,0 C 17,8 C 14,4 C 100 % 1007,1 hPa 0,0 l/m 0 min 0 min 64 W/m 6,4 km/h (2 Bft) 95,74 %
28.07.2023 08:24 18,0 C 17,8 C 14,4 C 100 % 1007,1 hPa 0,0 l/m 0 min 0 min 53 W/m 9,7 km/h (2 Bft) 93,62 %
28.07.2023 08:26 18,0 C 17,2 C 14,4 C 100 % 1007,1 hPa 0,0 l/m 0 min 0 min 49 W/m 9,7 km/h (2 Bft) 97,87 %
28.07.2023 08:28 17,9 C 17,2 C 14,4 C 100 % 1007,1 hPa 0,0 l/m 0 min 0 min 49 W/m 6,4 km/h (2 Bft) 95,74 %
28.07.2023 08:30 17,9 C 17,2 C 14,4 C 100 % 1007,1 hPa 0,0 l/m 0 min 2 min 57 W/m 0,0 km/h (0 Bft) 97,87 %
28.07.2023 08:32 17,9 C 17,2 C 14,4 C 100 % 1007,1 hPa 0,0 l/m 0 min 0 min 66 W/m 0,0 km/h (0 Bft) 97,83 %
28.07.2023 08:34 18,0 C 17,2 C 14,4 C 100 % 1007,2 hPa 0,0 l/m 0 min 0 min 71 W/m 0,0 km/h (0 Bft) 93,62 %
28.07.2023 08:36 18,0 C 17,8 C 14,4 C 100 % 1007,2 hPa 0,0 l/m 0 min 0 min 78 W/m 6,4 km/h (2 Bft) 97,56 %
28.07.2023 08:38 18,0 C 17,8 C 14,4 C 100 % 1007,2 hPa 0,0 l/m 0 min 0 min 84 W/m 6,4 km/h (2 Bft) 100,00 %
28.07.2023 08:40 18,1 C 17,8 C 14,4 C 100 % 1007,2 hPa 0,0 l/m 0 min 0 min 80 W/m 9,7 km/h (2 Bft) 97,87 %
28.07.2023 08:42 18,0 C 17,8 C 14,4 C 100 % 1007,2 hPa 0,0 l/m 0 min 0 min 65 W/m 6,4 km/h (2 Bft) 100,00 %
28.07.2023 08:44 18,1 C 17,8 C 14,4 C 100 % 1007,3 hPa 0,0 l/m 0 min 0 min 57 W/m 6,4 km/h (2 Bft) 95,74 %
28.07.2023 08:46 18,1 C 17,8 C 14,4 C 100 % 1007,3 hPa 0,0 l/m 0 min 0 min 56 W/m 6,4 km/h (2 Bft) 97,83 %
28.07.2023 08:48 18,1 C 17,8 C 14,4 C 100 % 1007,3 hPa 0,0 l/m 0 min 0 min 60 W/m 6,4 km/h (2 Bft) 100,00 %
28.07.2023 08:50 18,1 C 17,8 C 14,4 C 100 % 1007,3 hPa 0,0 l/m 0 min 0 min 62 W/m 3,2 km/h (1 Bft) 100,00 %
28.07.2023 08:52 18,1 C 17,8 C 14,4 C 100 % 1007,4 hPa 0,0 l/m 0 min 0 min 71 W/m 6,4 km/h (2 Bft) 95,74 %
28.07.2023 08:54 18,1 C 17,8 C 14,4 C 100 % 1007,5 hPa 0,0 l/m 0 min 0 min 76 W/m 12,9 km/h (3 Bft) 97,87 %
28.07.2023 08:56 18,1 C 17,8 C 14,4 C 100 % 1007,4 hPa 0,0 l/m 0 min 0 min 67 W/m 9,7 km/h (2 Bft) 97,87 %
28.07.2023 08:58 18,1 C 17,8 C 14,4 C 100 % 1007,5 hPa 0,0 l/m 0 min 2 min 60 W/m 6,4 km/h (2 Bft) 97,83 %
28.07.2023 09:00 18,1 C 17,2 C 14,4 C 100 % 1007,5 hPa 0,0 l/m 0 min 0 min 50 W/m 6,4 km/h (2 Bft) 97,87 %
28.07.2023 09:02 18,1 C 17,2 C 14,4 C 100 % 1007,5 hPa 0,0 l/m 0 min 0 min 52 W/m 6,4 km/h (2 Bft) 97,87 %
28.07.2023 09:04 18,1 C 17,8 C 14,4 C 100 % 1007,5 hPa 0,0 l/m 0 min 0 min 56 W/m 9,7 km/h (2 Bft) 93,88 %
28.07.2023 09:06 18,1 C 17,8 C 14,4 C 100 % 1007,5 hPa 0,2 l/m 0 min 2 min 64 W/m 3,2 km/h (1 Bft) 96,61 %
28.07.2023 09:08 18,1 C 17,8 C 14,4 C 100 % 1007,5 hPa 0,0 l/m 0 min 2 min 78 W/m 3,2 km/h (1 Bft) 97,14 %
28.07.2023 09:10 18,1 C 17,8 C 14,4 C 100 % 1007,6 hPa 0,0 l/m 0 min 0 min 91 W/m 3,2 km/h (1 Bft) 97,87 %
28.07.2023 09:12 18,1 C 17,8 C 14,4 C 100 % 1007,6 hPa 0,0 l/m 0 min 0 min 93 W/m 6,4 km/h (2 Bft) 97,83 %
28.07.2023 09:14 18,1 C 17,8 C 14,4 C 100 % 1007,6 hPa 0,0 l/m 0 min 0 min 92 W/m 3,2 km/h (1 Bft) 97,87 %
28.07.2023 09:16 18,2 C 17,8 C 14,4 C 100 % 1007,6 hPa 0,0 l/m 0 min 0 min 92 W/m 3,2 km/h (1 Bft) 95,74 %
28.07.2023 09:18 18,2 C 17,8 C 14,4 C 100 % 1007,6 hPa 0,0 l/m 0 min 0 min 94 W/m 3,2 km/h (1 Bft) 93,62 %
28.07.2023 09:20 18,2 C 17,8 C 14,4 C 100 % 1007,6 hPa 0,0 l/m 0 min 0 min 98 W/m 0,0 km/h (0 Bft) 97,87 %
28.07.2023 09:22 18,2 C 17,8 C 15,0 C 100 % 1007,6 hPa 0,0 l/m 0 min 0 min 98 W/m 6,4 km/h (2 Bft) 95,74 %
28.07.2023 09:24 18,2 C 17,8 C 14,4 C 100 % 1007,6 hPa 0,0 l/m 0 min 0 min 94 W/m 6,4 km/h (2 Bft) 97,87 %
28.07.2023 09:26 18,2 C 17,8 C 15,0 C 100 % 1007,6 hPa 0,0 l/m 0 min 0 min 91 W/m 6,4 km/h (2 Bft) 95,65 %
28.07.2023 09:28 18,3 C 17,8 C 15,0 C 100 % 1007,6 hPa 0,0 l/m 0 min 0 min 97 W/m 9,7 km/h (2 Bft) 97,87 %
28.07.2023 09:30 18,3 C 17,8 C 15,0 C 100 % 1007,6 hPa 0,0 l/m 0 min 0 min 101 W/m 6,4 km/h (2 Bft) 97,87 %
28.07.2023 09:32 18,3 C 17,8 C 15,0 C 100 % 1007,7 hPa 0,0 l/m 0 min 0 min 115 W/m 6,4 km/h (2 Bft) 95,74 %
28.07.2023 09:34 18,3 C 17,8 C 15,0 C 100 % 1007,6 hPa 0,0 l/m 0 min 0 min 119 W/m 6,4 km/h (2 Bft) 95,74 %
28.07.2023 09:36 18,3 C 18,3 C 15,0 C 100 % 1007,7 hPa 0,0 l/m 0 min 0 min 114 W/m 3,2 km/h (1 Bft) 95,74 %
28.07.2023 09:38 18,3 C 18,3 C 15,0 C 100 % 1007,7 hPa 0,0 l/m 0 min 0 min 107 W/m 6,4 km/h (2 Bft) 95,65 %
28.07.2023 09:40 18,4 C 18,3 C 15,0 C 100 % 1007,7 hPa 0,0 l/m 0 min 0 min 114 W/m 3,2 km/h (1 Bft) 97,87 %
28.07.2023 09:42 18,4 C 18,3 C 15,0 C 100 % 1007,7 hPa 0,0 l/m 0 min 0 min 115 W/m 6,4 km/h (2 Bft) 95,74 %
28.07.2023 09:44 18,4 C 18,3 C 15,0 C 100 % 1007,7 hPa 0,0 l/m 0 min 0 min 120 W/m 9,7 km/h (2 Bft) 97,87 %
28.07.2023 09:46 18,5 C 18,3 C 15,0 C 100 % 1007,7 hPa 0,0 l/m 0 min 0 min 147 W/m 9,7 km/h (2 Bft) 97,87 %
28.07.2023 09:48 18,5 C 18,3 C 15,0 C 100 % 1007,7 hPa 0,0 l/m 0 min 0 min 155 W/m 12,9 km/h (3 Bft) 97,87 %
28.07.2023 09:50 18,5 C 18,3 C 15,0 C 100 % 1007,7 hPa 0,0 l/m 0 min 0 min 160 W/m 6,4 km/h (2 Bft) 97,83 %
28.07.2023 09:52 18,5 C 18,3 C 15,0 C 100 % 1007,7 hPa 0,0 l/m 0 min 0 min 144 W/m 12,9 km/h (3 Bft) 95,74 %
28.07.2023 09:54 18,5 C 18,9 C 15,0 C 100 % 1007,8 hPa 0,0 l/m 0 min 0 min 148 W/m 6,4 km/h (2 Bft) 97,87 %
28.07.2023 09:56 18,6 C 18,9 C 15,0 C 100 % 1007,8 hPa 0,0 l/m 0 min 0 min 129 W/m 3,2 km/h (1 Bft) 96,30 %
28.07.2023 09:58 18,6 C 18,3 C 15,0 C 100 % 1007,8 hPa 0,0 l/m 0 min 0 min 102 W/m 6,4 km/h (2 Bft) 97,87 %
28.07.2023 10:00 18,6 C 18,3 C 15,0 C 100 % 1007,8 hPa 0,0 l/m 0 min 0 min 99 W/m 12,9 km/h (3 Bft) 95,74 %
28.07.2023 10:02 18,6 C 18,3 C 15,0 C 100 % 1007,9 hPa 0,0 l/m 0 min 0 min 97 W/m 6,4 km/h (2 Bft) 97,83 %
28.07.2023 10:04 18,5 C 18,3 C 15,0 C 100 % 1007,8 hPa 0,0 l/m 0 min 0 min 89 W/m 6,4 km/h (2 Bft) 95,24 %
28.07.2023 10:06 18,5 C 18,3 C 15,0 C 100 % 1007,9 hPa 0,0 l/m 0 min 0 min 101 W/m 12,9 km/h (3 Bft) 95,74 %
28.07.2023 10:08 18,5 C 18,3 C 15,0 C 100 % 1007,8 hPa 0,0 l/m 0 min 0 min 98 W/m 6,4 km/h (2 Bft) 95,74 %
28.07.2023 10:10 18,5 C 18,3 C 15,0 C 100 % 1007,9 hPa 0,0 l/m 0 min 0 min 104 W/m 6,4 km/h (2 Bft) 95,74 %
28.07.2023 10:12 18,5 C 18,3 C 15,0 C 100 % 1007,9 hPa 0,0 l/m 0 min 0 min 106 W/m 9,7 km/h (2 Bft) 93,62 %
28.07.2023 10:14 18,5 C 18,3 C 15,0 C 100 % 1007,9 hPa 0,0 l/m 0 min 0 min 101 W/m 16,1 km/h (3 Bft) 95,74 %
28.07.2023 10:16 18,5 C 18,3 C 15,0 C 100 % 1007,9 hPa 0,0 l/m 0 min 0 min 85 W/m 6,4 km/h (2 Bft) 93,48 %
28.07.2023 10:18 18,4 C 18,3 C 15,0 C 100 % 1007,9 hPa 0,0 l/m 0 min 0 min 86 W/m 6,4 km/h (2 Bft) 95,74 %
28.07.2023 10:20 18,4 C 18,3 C 15,0 C 100 % 1007,9 hPa 0,0 l/m 0 min 0 min 87 W/m 9,7 km/h (2 Bft) 95,74 %
28.07.2023 10:22 18,4 C 18,3 C 15,0 C 100 % 1008,0 hPa 0,0 l/m 0 min 0 min 83 W/m 6,4 km/h (2 Bft) 93,62 %
28.07.2023 10:24 18,4 C 18,3 C 15,0 C 100 % 1008,0 hPa 0,0 l/m 0 min 0 min 77 W/m 6,4 km/h (2 Bft) 95,74 %
28.07.2023 10:26 18,5 C 18,3 C 15,0 C 100 % 1008,0 hPa 0,0 l/m 0 min 0 min 76 W/m 3,2 km/h (1 Bft) 95,74 %
28.07.2023 10:28 18,5 C 18,3 C 15,0 C 100 % 1008,0 hPa 0,0 l/m 0 min 0 min 92 W/m 6,4 km/h (2 Bft) 93,48 %
28.07.2023 10:30 18,5 C 18,3 C 15,0 C 100 % 1008,0 hPa 0,0 l/m 0 min 0 min 85 W/m 9,7 km/h (2 Bft) 95,65 %
28.07.2023 10:32 18,4 C 18,3 C 15,0 C 100 % 1008,0 hPa 0,0 l/m 0 min 0 min 84 W/m 16,1 km/h (3 Bft) 97,87 %
28.07.2023 10:34 18,4 C 18,3 C 15,0 C 100 % 1008,1 hPa 0,0 l/m 0 min 0 min 104 W/m 16,1 km/h (3 Bft) 97,87 %
28.07.2023 10:36 18,4 C 18,3 C 15,0 C 100 % 1008,1 hPa 0,0 l/m 0 min 0 min 122 W/m 12,9 km/h (3 Bft) 97,87 %
28.07.2023 10:38 18,4 C 18,3 C 15,0 C 100 % 1008,0 hPa 0,0 l/m 0 min 0 min 178 W/m 6,4 km/h (2 Bft) 97,87 %
28.07.2023 10:40 18,4 C 18,9 C 15,0 C 100 % 1008,1 hPa 0,0 l/m 0 min 0 min 195 W/m 6,4 km/h (2 Bft) 97,87 %
28.07.2023 10:42 18,5 C 18,9 C 15,0 C 100 % 1008,1 hPa 0,0 l/m 0 min 0 min 183 W/m 6,4 km/h (2 Bft) 100,00 %
28.07.2023 10:44 18,6 C 18,9 C 15,0 C 100 % 1008,1 hPa 0,0 l/m 0 min 0 min 178 W/m 6,4 km/h (2 Bft) 100,00 %
28.07.2023 10:46 18,6 C 18,9 C 15,0 C 100 % 1008,1 hPa 0,0 l/m 0 min 0 min 153 W/m 6,4 km/h (2 Bft) 100,00 %
28.07.2023 10:48 18,6 C 18,9 C 15,0 C 100 % 1008,2 hPa 0,0 l/m 0 min 0 min 159 W/m 16,1 km/h (3 Bft) 100,00 %
28.07.2023 10:50 18,6 C 18,9 C 15,0 C 100 % 1008,2 hPa 0,0 l/m 0 min 0 min 153 W/m 16,1 km/h (3 Bft) 100,00 %
28.07.2023 10:52 18,6 C 18,9 C 15,0 C 100 % 1008,2 hPa 0,0 l/m 0 min 0 min 173 W/m 6,4 km/h (2 Bft) 100,00 %
28.07.2023 10:54 18,6 C 18,9 C 15,0 C 100 % 1008,2 hPa 0,0 l/m 0 min 0 min 213 W/m 6,4 km/h (2 Bft) 100,00 %
28.07.2023 10:56 18,7 C 19,4 C 15,0 C 100 % 1008,2 hPa 0,0 l/m 0 min 0 min 203 W/m 9,7 km/h (2 Bft) 100,00 %
28.07.2023 10:58 18,7 C 19,4 C 15,0 C 100 % 1008,2 hPa 0,0 l/m 0 min 0 min 175 W/m 9,7 km/h (2 Bft) 100,00 %
28.07.2023 11:00 18,7 C 19,4 C 15,0 C 100 % 1008,2 hPa 0,0 l/m 0 min 0 min 195 W/m 3,2 km/h (1 Bft) 100,00 %
28.07.2023 11:02 18,8 C 19,4 C 15,6 C 100 % 1008,2 hPa 0,0 l/m 0 min 0 min 231 W/m 3,2 km/h (1 Bft) 100,00 %
28.07.2023 11:04 18,8 C 19,4 C 15,6 C 100 % 1008,2 hPa 0,0 l/m 0 min 0 min 197 W/m 9,7 km/h (2 Bft) 100,00 %
28.07.2023 11:06 18,8 C 19,4 C 15,6 C 100 % 1008,2 hPa 0,0 l/m 0 min 0 min 212 W/m 6,4 km/h (2 Bft) 100,00 %
28.07.2023 11:08 18,9 C 20,0 C 15,6 C 100 % 1008,2 hPa 0,0 l/m 0 min 0 min 215 W/m 9,7 km/h (2 Bft) 100,00 %
28.07.2023 11:10 18,9 C 20,0 C 15,6 C 100 % 1008,2 hPa 0,0 l/m 0 min 0 min 180 W/m 9,7 km/h (2 Bft) 100,00 %
28.07.2023 11:12 19,0 C 19,4 C 15,6 C 100 % 1008,2 hPa 0,0 l/m 0 min 0 min 145 W/m 3,2 km/h (1 Bft) 97,83 %
28.07.2023 11:14 19,0 C 19,4 C 15,6 C 100 % 1008,2 hPa 0,0 l/m 0 min 0 min 130 W/m 9,7 km/h (2 Bft) 100,00 %
28.07.2023 11:16 19,0 C 19,4 C 15,6 C 100 % 1008,2 hPa 0,0 l/m 0 min 0 min 121 W/m 6,4 km/h (2 Bft) 100,00 %
28.07.2023 11:18 19,0 C 19,4 C 15,6 C 100 % 1008,3 hPa 0,0 l/m 0 min 0 min 126 W/m 9,7 km/h (2 Bft) 100,00 %
28.07.2023 11:20 19,1 C 19,4 C 15,6 C 100 % 1008,3 hPa 0,0 l/m 0 min 0 min 139 W/m 9,7 km/h (2 Bft) 100,00 %
28.07.2023 11:22 19,1 C 19,4 C 15,6 C 100 % 1008,3 hPa 0,0 l/m 0 min 0 min 131 W/m 9,7 km/h (2 Bft) 97,87 %
28.07.2023 11:24 19,1 C 19,4 C 15,6 C 100 % 1008,3 hPa 0,0 l/m 0 min 0 min 137 W/m 6,4 km/h (2 Bft) 97,87 %
28.07.2023 11:26 19,1 C 19,4 C 15,6 C 100 % 1008,3 hPa 0,0 l/m 0 min 0 min 172 W/m 12,9 km/h (3 Bft) 100,00 %
28.07.2023 11:28 19,1 C 19,4 C 15,6 C 100 % 1008,3 hPa 0,0 l/m 0 min 0 min 179 W/m 6,4 km/h (2 Bft) 100,00 %
28.07.2023 11:30 19,1 C 20,0 C 15,6 C 100 % 1008,3 hPa 0,0 l/m 0 min 0 min 206 W/m 12,9 km/h (3 Bft) 100,00 %
28.07.2023 11:32 19,1 C 20,0 C 15,6 C 100 % 1008,3 hPa 0,0 l/m 0 min 0 min 225 W/m 16,1 km/h (3 Bft) 97,87 %
28.07.2023 11:34 19,1 C 20,0 C 15,6 C 100 % 1008,3 hPa 0,0 l/m 0 min 0 min 191 W/m 6,4 km/h (2 Bft) 100,00 %
28.07.2023 11:36 19,1 C 20,0 C 15,6 C 100 % 1008,3 hPa 0,0 l/m 0 min 0 min 160 W/m 6,4 km/h (2 Bft) 97,87 %
28.07.2023 11:38 19,2 C 20,0 C 15,6 C 100 % 1008,3 hPa 0,0 l/m 0 min 0 min 201 W/m 22,5 km/h (4 Bft) 97,83 %
28.07.2023 11:40 19,2 C 20,0 C 15,6 C 100 % 1008,3 hPa 0,0 l/m 0 min 0 min 206 W/m 16,1 km/h (3 Bft) 100,00 %
28.07.2023 11:42 19,3 C 20,0 C 15,6 C 99 % 1008,3 hPa 0,0 l/m 0 min 0 min 203 W/m 9,7 km/h (2 Bft) 100,00 %
28.07.2023 11:44 19,3 C 20,0 C 15,6 C 99 % 1008,3 hPa 0,0 l/m 0 min 0 min 244 W/m 16,1 km/h (3 Bft) 97,87 %
28.07.2023 11:46 19,4 C 20,0 C 15,6 C 99 % 1008,3 hPa 0,0 l/m 0 min 0 min 255 W/m 12,9 km/h (3 Bft) 100,00 %
28.07.2023 11:48 19,4 C 20,0 C 15,6 C 99 % 1008,3 hPa 0,0 l/m 0 min 0 min 275 W/m 3,2 km/h (1 Bft) 97,87 %
28.07.2023 11:50 19,4 C 20,6 C 15,6 C 99 % 1008,3 hPa 0,0 l/m 0 min 0 min 327 W/m 0,0 km/h (0 Bft) 100,00 %
28.07.2023 11:52 19,5 C 21,1 C 15,6 C 99 % 1008,2 hPa 0,0 l/m 2 min 0 min 394 W/m 0,0 km/h (0 Bft) 100,00 %
28.07.2023 11:54 19,6 C 21,1 C 16,1 C 99 % 1008,3 hPa 0,0 l/m 2 min 0 min 397 W/m 9,7 km/h (2 Bft) 95,74 %
28.07.2023 11:56 19,7 C 21,1 C 15,6 C 99 % 1008,2 hPa 0,0 l/m 0 min 0 min 372 W/m 6,4 km/h (2 Bft) 97,87 %
28.07.2023 11:58 19,8 C 21,1 C 16,1 C 99 % 1008,2 hPa 0,0 l/m 0 min 0 min 371 W/m 9,7 km/h (2 Bft) 97,87 %
28.07.2023 12:00 19,8 C 21,1 C 16,1 C 98 % 1008,3 hPa 0,0 l/m 0 min 0 min 353 W/m 12,9 km/h (3 Bft) 95,74 %
28.07.2023 12:02 20,0 C 21,1 C 16,1 C 98 % 1008,3 hPa 0,0 l/m 0 min 0 min 328 W/m 6,4 km/h (2 Bft) 95,74 %
28.07.2023 12:04 20,1 C 21,1 C 16,1 C 98 % 1008,2 hPa 0,0 l/m 0 min 0 min 267 W/m 12,9 km/h (3 Bft) 95,83 %
28.07.2023 12:08 20,2 C 21,1 C 16,1 C 97 % 1008,3 hPa 0,0 l/m 0 min 0 min 265 W/m 9,7 km/h (2 Bft) 94,00 %
28.07.2023 12:10 20,3 C 21,1 C 16,7 C 96 % 1008,2 hPa 0,0 l/m 0 min 0 min 268 W/m 6,4 km/h (2 Bft) 95,74 %
28.07.2023 12:12 20,3 C 21,1 C 16,7 C 96 % 1008,2 hPa 0,0 l/m 0 min 0 min 223 W/m 12,9 km/h (3 Bft) 93,62 %
28.07.2023 12:14 20,4 C 21,1 C 16,7 C 96 % 1008,2 hPa 0,0 l/m 0 min 0 min 279 W/m 3,2 km/h (1 Bft) 93,62 %
28.07.2023 12:16 20,4 C 21,1 C 16,7 C 96 % 1008,2 hPa 0,0 l/m 0 min 0 min 278 W/m 6,4 km/h (2 Bft) 97,83 %
28.07.2023 12:18 20,6 C 21,1 C 17,2 C 96 % 1008,2 hPa 0,0 l/m 0 min 0 min 264 W/m 6,4 km/h (2 Bft) 95,74 %
28.07.2023 12:20 20,6 C 21,7 C 17,2 C 95 % 1008,2 hPa 0,0 l/m 0 min 0 min 292 W/m 12,9 km/h (3 Bft) 95,74 %
28.07.2023 12:22 20,6 C 21,7 C 17,2 C 95 % 1008,2 hPa 0,0 l/m 0 min 0 min 337 W/m 9,7 km/h (2 Bft) 95,12 %
28.07.2023 12:24 20,7 C 21,7 C 17,2 C 94 % 1008,2 hPa 0,0 l/m 2 min 0 min 401 W/m 9,7 km/h (2 Bft) 95,74 %
28.07.2023 12:26 20,7 C 21,7 C 17,2 C 94 % 1008,2 hPa 0,0 l/m 2 min 0 min 397 W/m 6,4 km/h (2 Bft) 95,74 %
28.07.2023 12:28 20,8 C 21,7 C 17,8 C 94 % 1008,2 hPa 0,0 l/m 2 min 0 min 397 W/m 9,7 km/h (2 Bft) 93,62 %
28.07.2023 12:30 20,9 C 22,2 C 17,8 C 93 % 1008,3 hPa 0,0 l/m 0 min 0 min 368 W/m 6,4 km/h (2 Bft) 93,48 %
28.07.2023 12:32 20,9 C 21,7 C 17,8 C 93 % 1008,2 hPa 0,0 l/m 0 min 0 min 329 W/m 6,4 km/h (2 Bft) 89,36 %
28.07.2023 12:34 21,0 C 21,7 C 17,2 C 92 % 1008,3 hPa 0,0 l/m 0 min 0 min 241 W/m 6,4 km/h (2 Bft) 93,62 %
28.07.2023 12:36 21,1 C 22,2 C 17,2 C 92 % 1008,2 hPa 0,0 l/m 0 min 0 min 266 W/m 6,4 km/h (2 Bft) 93,62 %
28.07.2023 12:38 21,2 C 23,3 C 17,8 C 92 % 1008,2 hPa 0,0 l/m 0 min 0 min 328 W/m 6,4 km/h (2 Bft) 91,49 %
28.07.2023 12:40 21,3 C 23,3 C 18,3 C 92 % 1008,2 hPa 0,0 l/m 2 min 0 min 453 W/m 6,4 km/h (2 Bft) 95,74 %
28.07.2023 12:42 21,4 C 23,3 C 18,3 C 92 % 1008,2 hPa 0,0 l/m 0 min 0 min 340 W/m 6,4 km/h (2 Bft) 95,74 %
28.07.2023 12:44 21,4 C 23,3 C 18,3 C 92 % 1008,2 hPa 0,0 l/m 0 min 0 min 348 W/m 6,4 km/h (2 Bft) 97,83 %
28.07.2023 12:46 21,5 C 22,8 C 18,3 C 91 % 1008,3 hPa 0,0 l/m 0 min 0 min 229 W/m 6,4 km/h (2 Bft) 95,74 %
28.07.2023 12:48 21,6 C 22,2 C 18,3 C 91 % 1008,3 hPa 0,0 l/m 0 min 0 min 178 W/m 3,2 km/h (1 Bft) 93,62 %
28.07.2023 12:50 21,6 C 21,7 C 17,8 C 91 % 1008,3 hPa 0,0 l/m 0 min 0 min 104 W/m 9,7 km/h (2 Bft) 93,62 %
28.07.2023 12:52 21,6 C 21,7 C 17,8 C 90 % 1008,3 hPa 0,0 l/m 0 min 0 min 75 W/m 6,4 km/h (2 Bft) 97,87 %
28.07.2023 12:54 21,6 C 21,7 C 17,8 C 90 % 1008,3 hPa 0,0 l/m 0 min 2 min 74 W/m 3,2 km/h (1 Bft) 97,87 %
28.07.2023 12:56 21,6 C 21,1 C 17,2 C 90 % 1008,3 hPa 0,0 l/m 0 min 2 min 94 W/m 6,4 km/h (2 Bft) 95,65 %
28.07.2023 12:58 21,6 C 21,1 C 17,2 C 90 % 1008,4 hPa 0,0 l/m 0 min 2 min 217 W/m 9,7 km/h (2 Bft) 95,74 %
28.07.2023 13:00 21,5 C 21,7 C 17,8 C 90 % 1008,4 hPa 0,0 l/m 0 min 2 min 361 W/m 16,1 km/h (3 Bft) 98,11 %
28.07.2023 13:02 21,5 C 21,7 C 17,8 C 91 % 1008,3 hPa 0,0 l/m 0 min 0 min 336 W/m 6,4 km/h (2 Bft) 97,87 %
28.07.2023 13:04 21,5 C 21,7 C 17,8 C 91 % 1008,4 hPa 0,0 l/m 0 min 0 min 298 W/m 12,9 km/h (3 Bft) 97,67 %
28.07.2023 13:06 21,6 C 21,7 C 17,8 C 91 % 1008,4 hPa 0,0 l/m 0 min 0 min 272 W/m 16,1 km/h (3 Bft) 96,55 %
28.07.2023 13:08 21,6 C 21,7 C 17,8 C 91 % 1008,4 hPa 0,0 l/m 0 min 0 min 278 W/m 16,1 km/h (3 Bft) 94,29 %
28.07.2023 13:10 21,4 C 22,2 C 17,8 C 90 % 1008,4 hPa 0,0 l/m 0 min 0 min 335 W/m 16,1 km/h (3 Bft) 97,87 %
28.07.2023 13:12 21,4 C 22,2 C 18,3 C 90 % 1008,3 hPa 0,0 l/m 0 min 0 min 267 W/m 6,4 km/h (2 Bft) 95,74 %
28.07.2023 13:14 21,5 C 22,2 C 18,3 C 90 % 1008,3 hPa 0,0 l/m 0 min 0 min 173 W/m 6,4 km/h (2 Bft) 100,00 %
28.07.2023 13:16 21,5 C 21,7 C 17,8 C 90 % 1008,4 hPa 0,0 l/m 0 min 0 min 114 W/m 16,1 km/h (3 Bft) 100,00 %
28.07.2023 13:18 21,4 C 21,1 C 17,8 C 89 % 1008,4 hPa 0,0 l/m 0 min 2 min 70 W/m 12,9 km/h (3 Bft) 97,87 %
28.07.2023 13:20 21,3 C 20,6 C 17,2 C 89 % 1008,5 hPa 0,0 l/m 0 min 2 min 49 W/m 12,9 km/h (3 Bft) 100,00 %
28.07.2023 13:22 21,2 C 20,6 C 16,7 C 89 % 1008,4 hPa 0,0 l/m 0 min 2 min 51 W/m 16,1 km/h (3 Bft) 100,00 %
28.07.2023 13:24 21,1 C 20,0 C 16,7 C 89 % 1008,5 hPa 0,0 l/m 0 min 2 min 78 W/m 12,9 km/h (3 Bft) 97,87 %
28.07.2023 13:26 21,0 C 20,0 C 16,1 C 90 % 1008,4 hPa 0,2 l/m 0 min 2 min 131 W/m 9,7 km/h (2 Bft) 100,00 %
28.07.2023 13:28 20,9 C 20,0 C 16,1 C 90 % 1008,3 hPa 0,0 l/m 0 min 2 min 216 W/m 6,4 km/h (2 Bft) 100,00 %
28.07.2023 13:30 20,9 C 21,1 C 16,1 C 91 % 1008,3 hPa 0,0 l/m 0 min 0 min 332 W/m 3,2 km/h (1 Bft) 100,00 %
28.07.2023 13:32 20,9 C 22,8 C 16,1 C 92 % 1008,3 hPa 0,0 l/m 2 min 0 min 427 W/m 6,4 km/h (2 Bft) 100,00 %
28.07.2023 13:34 21,1 C 25,0 C 16,7 C 93 % 1008,3 hPa 0,0 l/m 2 min 0 min 741 W/m 6,4 km/h (2 Bft) 100,00 %
28.07.2023 13:36 21,2 C 25,6 C 16,7 C 93 % 1008,3 hPa 0,0 l/m 2 min 0 min 728 W/m 6,4 km/h (2 Bft) 100,00 %
28.07.2023 13:38 21,3 C 25,6 C 16,7 C 93 % 1008,3 hPa 0,0 l/m 2 min 0 min 785 W/m 12,9 km/h (3 Bft) 100,00 %
28.07.2023 13:40 21,4 C 26,7 C 16,7 C 93 % 1008,2 hPa 0,0 l/m 2 min 0 min 773 W/m 6,4 km/h (2 Bft) 97,87 %
28.07.2023 13:42 21,6 C 27,2 C 16,7 C 93 % 1008,2 hPa 0,0 l/m 2 min 0 min 734 W/m 9,7 km/h (2 Bft) 100,00 %
28.07.2023 13:44 21,7 C 28,3 C 17,2 C 93 % 1008,3 hPa 0,0 l/m 2 min 0 min 780 W/m 9,7 km/h (2 Bft) 100,00 %
28.07.2023 13:46 21,9 C 28,3 C 17,2 C 93 % 1008,3 hPa 0,0 l/m 2 min 0 min 780 W/m 6,4 km/h (2 Bft) 97,87 %
28.07.2023 13:48 22,1 C 28,9 C 17,8 C 93 % 1008,3 hPa 0,0 l/m 2 min 0 min 935 W/m 3,2 km/h (1 Bft) 100,00 %
28.07.2023 13:50 22,3 C 28,3 C 17,8 C 93 % 1008,3 hPa 0,0 l/m 2 min 0 min 815 W/m 12,9 km/h (3 Bft) 100,00 %
28.07.2023 13:52 22,4 C 28,3 C 18,3 C 92 % 1008,2 hPa 0,0 l/m 2 min 0 min 780 W/m 12,9 km/h (3 Bft) 100,00 %
28.07.2023 13:54 22,5 C 27,8 C 18,3 C 91 % 1008,2 hPa 0,0 l/m 2 min 0 min 786 W/m 19,3 km/h (3 Bft) 100,00 %
28.07.2023 13:56 22,6 C 26,7 C 18,9 C 89 % 1008,2 hPa 0,0 l/m 2 min 0 min 826 W/m 12,9 km/h (3 Bft) 100,00 %
28.07.2023 13:58 22,6 C 25,6 C 18,9 C 88 % 1008,3 hPa 0,0 l/m 2 min 0 min 437 W/m 16,1 km/h (3 Bft) 97,87 %
28.07.2023 14:00 22,6 C 25,0 C 18,9 C 88 % 1008,2 hPa 0,0 l/m 0 min 0 min 372 W/m 16,1 km/h (3 Bft) 100,00 %
28.07.2023 14:02 22,7 C 23,9 C 18,9 C 87 % 1008,3 hPa 0,0 l/m 0 min 0 min 306 W/m 22,5 km/h (4 Bft) 100,00 %
28.07.2023 14:04 22,7 C 25,0 C 18,9 C 88 % 1008,2 hPa 0,0 l/m 0 min 0 min 368 W/m 16,1 km/h (3 Bft) 97,96 %
28.07.2023 14:06 22,8 C 25,6 C 19,4 C 87 % 1008,2 hPa 0,0 l/m 0 min 0 min 376 W/m 9,7 km/h (2 Bft) 98,31 %
28.07.2023 14:08 22,9 C 25,0 C 19,4 C 86 % 1008,2 hPa 0,0 l/m 0 min 0 min 376 W/m 9,7 km/h (2 Bft) 94,29 %
28.07.2023 14:10 23,0 C 25,0 C 19,4 C 86 % 1008,2 hPa 0,0 l/m 2 min 0 min 462 W/m 19,3 km/h (3 Bft) 95,74 %
28.07.2023 14:12 23,1 C 25,0 C 19,4 C 85 % 1008,2 hPa 0,0 l/m 2 min 0 min 565 W/m 16,1 km/h (3 Bft) 97,87 %
28.07.2023 14:14 23,1 C 25,0 C 19,4 C 84 % 1008,2 hPa 0,0 l/m 2 min 0 min 439 W/m 12,9 km/h (3 Bft) 97,83 %
28.07.2023 14:16 23,1 C 24,4 C 19,4 C 84 % 1008,2 hPa 0,0 l/m 0 min 0 min 391 W/m 16,1 km/h (3 Bft) 97,87 %
28.07.2023 14:18 23,2 C 25,0 C 19,4 C 84 % 1008,2 hPa 0,0 l/m 0 min 0 min 396 W/m 12,9 km/h (3 Bft) 97,87 %
28.07.2023 14:20 23,3 C 25,0 C 19,4 C 84 % 1008,2 hPa 0,0 l/m 2 min 0 min 504 W/m 6,4 km/h (2 Bft) 97,87 %
28.07.2023 14:22 23,4 C 25,0 C 20,0 C 84 % 1008,1 hPa 0,0 l/m 2 min 0 min 474 W/m 12,9 km/h (3 Bft) 95,74 %
28.07.2023 14:24 23,5 C 25,0 C 20,0 C 84 % 1008,2 hPa 0,0 l/m 2 min 0 min 460 W/m 12,9 km/h (3 Bft) 97,87 %
28.07.2023 14:26 23,5 C 25,0 C 20,0 C 82 % 1008,1 hPa 0,0 l/m 2 min 0 min 516 W/m 16,1 km/h (3 Bft) 95,65 %
28.07.2023 14:28 23,5 C 24,4 C 20,0 C 81 % 1008,1 hPa 0,0 l/m 2 min 0 min 413 W/m 16,1 km/h (3 Bft) 97,87 %
28.07.2023 14:30 23,6 C 24,4 C 19,4 C 81 % 1008,1 hPa 0,0 l/m 0 min 0 min 317 W/m 12,9 km/h (3 Bft) 97,87 %
28.07.2023 14:32 23,6 C 23,9 C 19,4 C 82 % 1008,1 hPa 0,0 l/m 0 min 0 min 295 W/m 16,1 km/h (3 Bft) 97,87 %
28.07.2023 14:34 23,6 C 24,4 C 19,4 C 82 % 1008,1 hPa 0,0 l/m 0 min 0 min 378 W/m 12,9 km/h (3 Bft) 97,87 %
28.07.2023 14:36 23,6 C 24,4 C 19,4 C 83 % 1008,2 hPa 0,0 l/m 0 min 0 min 356 W/m 6,4 km/h (2 Bft) 100,00 %
28.07.2023 14:38 23,6 C 23,9 C 19,4 C 82 % 1008,2 hPa 0,0 l/m 0 min 0 min 272 W/m 12,9 km/h (3 Bft) 100,00 %
28.07.2023 14:40 23,6 C 23,9 C 19,4 C 82 % 1008,1 hPa 0,0 l/m 0 min 0 min 173 W/m 6,4 km/h (2 Bft) 100,00 %
28.07.2023 14:42 23,6 C 23,3 C 18,9 C 82 % 1008,2 hPa 0,0 l/m 0 min 0 min 135 W/m 12,9 km/h (3 Bft) 100,00 %
28.07.2023 14:44 23,6 C 23,3 C 18,9 C 82 % 1008,2 hPa 0,0 l/m 0 min 0 min 126 W/m 12,9 km/h (3 Bft) 100,00 %
28.07.2023 14:46 23,4 C 22,8 C 18,9 C 82 % 1008,2 hPa 0,0 l/m 0 min 0 min 130 W/m 12,9 km/h (3 Bft) 100,00 %
28.07.2023 14:48 23,3 C 22,8 C 18,9 C 82 % 1008,3 hPa 0,0 l/m 0 min 0 min 142 W/m 12,9 km/h (3 Bft) 100,00 %
28.07.2023 14:50 23,2 C 22,2 C 18,3 C 82 % 1008,3 hPa 0,0 l/m 0 min 0 min 142 W/m 22,5 km/h (4 Bft) 100,00 %
28.07.2023 14:52 23,0 C 22,2 C 18,3 C 82 % 1008,3 hPa 0,0 l/m 0 min 0 min 116 W/m 19,3 km/h (3 Bft) 97,83 %
28.07.2023 14:54 23,0 C 22,2 C 18,3 C 83 % 1008,3 hPa 0,0 l/m 0 min 0 min 155 W/m 16,1 km/h (3 Bft) 97,87 %
28.07.2023 14:56 22,8 C 22,2 C 18,3 C 83 % 1008,3 hPa 0,0 l/m 0 min 0 min 165 W/m 16,1 km/h (3 Bft) 100,00 %
28.07.2023 14:58 22,8 C 22,8 C 18,3 C 83 % 1008,4 hPa 0,0 l/m 0 min 0 min 198 W/m 19,3 km/h (3 Bft) 100,00 %
28.07.2023 15:00 22,8 C 22,8 C 18,3 C 83 % 1008,4 hPa 0,0 l/m 0 min 0 min 287 W/m 19,3 km/h (3 Bft) 97,87 %
28.07.2023 15:02 22,7 C 22,8 C 18,3 C 83 % 1008,3 hPa 0,0 l/m 0 min 0 min 348 W/m 22,5 km/h (4 Bft) 93,62 %
28.07.2023 15:04 22,8 C 23,3 C 18,9 C 84 % 1008,4 hPa 0,0 l/m 2 min 0 min 415 W/m 19,3 km/h (3 Bft) 98,00 %
28.07.2023 15:06 22,8 C 23,3 C 18,9 C 84 % 1008,4 hPa 0,0 l/m 0 min 0 min 378 W/m 22,5 km/h (4 Bft) 95,65 %
28.07.2023 15:08 22,8 C 23,3 C 18,9 C 83 % 1008,4 hPa 0,0 l/m 0 min 0 min 312 W/m 16,1 km/h (3 Bft) 97,87 %
28.07.2023 15:10 22,9 C 23,9 C 18,9 C 83 % 1008,4 hPa 0,0 l/m 0 min 0 min 326 W/m 19,3 km/h (3 Bft) 97,87 %
28.07.2023 15:12 23,0 C 23,9 C 19,4 C 84 % 1008,4 hPa 0,0 l/m 0 min 0 min 372 W/m 19,3 km/h (3 Bft) 93,62 %
28.07.2023 15:14 23,1 C 23,9 C 19,4 C 84 % 1008,5 hPa 0,0 l/m 2 min 0 min 418 W/m 19,3 km/h (3 Bft) 95,74 %
28.07.2023 15:16 23,1 C 23,9 C 19,4 C 84 % 1008,4 hPa 0,0 l/m 0 min 0 min 370 W/m 12,9 km/h (3 Bft) 95,74 %
28.07.2023 15:18 23,1 C 23,9 C 19,4 C 83 % 1008,4 hPa 0,0 l/m 0 min 0 min 359 W/m 16,1 km/h (3 Bft) 93,48 %
28.07.2023 15:20 23,2 C 23,9 C 19,4 C 84 % 1008,4 hPa 0,0 l/m 0 min 0 min 323 W/m 6,4 km/h (2 Bft) 95,74 %
28.07.2023 15:22 23,2 C 23,3 C 19,4 C 84 % 1008,4 hPa 0,0 l/m 0 min 0 min 247 W/m 12,9 km/h (3 Bft) 93,62 %
28.07.2023 15:24 23,2 C 23,3 C 19,4 C 83 % 1008,4 hPa 0,0 l/m 0 min 0 min 195 W/m 12,9 km/h (3 Bft) 95,74 %
28.07.2023 15:26 23,3 C 23,3 C 18,9 C 83 % 1008,4 hPa 0,0 l/m 0 min 0 min 136 W/m 6,4 km/h (2 Bft) 95,74 %
28.07.2023 15:28 23,2 C 23,3 C 18,9 C 83 % 1008,4 hPa 0,0 l/m 0 min 0 min 128 W/m 22,5 km/h (4 Bft) 95,74 %
28.07.2023 15:30 23,2 C 22,8 C 18,9 C 83 % 1008,4 hPa 0,0 l/m 0 min 0 min 131 W/m 22,5 km/h (4 Bft) 93,62 %
28.07.2023 15:32 23,2 C 22,8 C 18,9 C 83 % 1008,4 hPa 0,0 l/m 0 min 0 min 120 W/m 19,3 km/h (3 Bft) 93,48 %
28.07.2023 15:34 23,1 C 22,8 C 18,3 C 84 % 1008,4 hPa 0,0 l/m 0 min 0 min 128 W/m 16,1 km/h (3 Bft) 95,74 %
28.07.2023 15:36 22,9 C 22,2 C 18,3 C 83 % 1008,5 hPa 0,0 l/m 0 min 0 min 123 W/m 25,7 km/h (4 Bft) 95,74 %
28.07.2023 15:38 22,8 C 22,2 C 18,3 C 84 % 1008,4 hPa 0,0 l/m 0 min 0 min 104 W/m 9,7 km/h (2 Bft) 95,74 %
28.07.2023 15:40 22,7 C 22,2 C 17,8 C 84 % 1008,6 hPa 0,0 l/m 0 min 0 min 118 W/m 16,1 km/h (3 Bft) 94,29 %
28.07.2023 15:42 22,7 C 21,7 C 17,2 C 86 % 1008,6 hPa 0,2 l/m 0 min 2 min 141 W/m 16,1 km/h (3 Bft) 95,74 %
28.07.2023 15:44 22,6 C 21,1 C 16,7 C 87 % 1008,6 hPa 0,2 l/m 0 min 2 min 153 W/m 16,1 km/h (3 Bft) 89,36 %
28.07.2023 15:46 22,4 C 20,6 C 16,1 C 88 % 1008,6 hPa 0,2 l/m 0 min 2 min 161 W/m 12,9 km/h (3 Bft) 98,28 %
28.07.2023 15:48 22,3 C 20,6 C 16,1 C 89 % 1008,6 hPa 0,2 l/m 0 min 2 min 180 W/m 12,9 km/h (3 Bft) 95,74 %
28.07.2023 15:50 22,2 C 20,6 C 16,1 C 90 % 1008,6 hPa 0,2 l/m 0 min 2 min 221 W/m 6,4 km/h (2 Bft) 100,00 %
28.07.2023 15:52 22,1 C 20,6 C 16,1 C 90 % 1008,6 hPa 0,0 l/m 0 min 2 min 261 W/m 6,4 km/h (2 Bft) 97,87 %
28.07.2023 15:54 22,1 C 21,1 C 16,1 C 91 % 1008,6 hPa 0,0 l/m 0 min 0 min 325 W/m 6,4 km/h (2 Bft) 95,74 %
28.07.2023 15:56 21,9 C 21,1 C 16,1 C 91 % 1008,6 hPa 0,0 l/m 2 min 0 min 366 W/m 12,9 km/h (3 Bft) 95,74 %
28.07.2023 15:58 21,9 C 21,7 C 16,7 C 91 % 1008,5 hPa 0,0 l/m 0 min 0 min 340 W/m 9,7 km/h (2 Bft) 95,74 %
28.07.2023 16:00 21,9 C 21,7 C 16,7 C 92 % 1008,5 hPa 0,2 l/m 2 min 0 min 366 W/m 9,7 km/h (2 Bft) 95,74 %
28.07.2023 16:02 21,9 C 22,2 C 16,7 C 93 % 1008,6 hPa 0,0 l/m 2 min 0 min 411 W/m 12,9 km/h (3 Bft) 93,48 %
28.07.2023 16:04 21,9 C 22,2 C 16,7 C 93 % 1008,5 hPa 0,0 l/m 2 min 0 min 401 W/m 12,9 km/h (3 Bft) 96,00 %
28.07.2023 16:06 21,9 C 22,2 C 16,7 C 94 % 1008,5 hPa 0,0 l/m 2 min 0 min 400 W/m 6,4 km/h (2 Bft) 96,61 %
28.07.2023 16:08 21,9 C 23,3 C 17,2 C 94 % 1008,5 hPa 0,0 l/m 2 min 0 min 418 W/m 9,7 km/h (2 Bft) 95,74 %
28.07.2023 16:10 22,0 C 24,4 C 17,2 C 94 % 1008,5 hPa 0,0 l/m 2 min 0 min 595 W/m 12,9 km/h (3 Bft) 91,43 %
28.07.2023 16:12 22,1 C 25,6 C 17,2 C 94 % 1008,4 hPa 0,0 l/m 2 min 0 min 737 W/m 6,4 km/h (2 Bft) 95,74 %
28.07.2023 16:14 22,2 C 26,7 C 17,2 C 94 % 1008,4 hPa 0,0 l/m 2 min 0 min 867 W/m 12,9 km/h (3 Bft) 97,83 %
28.07.2023 16:16 22,3 C 26,7 C 17,2 C 94 % 1008,4 hPa 0,0 l/m 2 min 0 min 831 W/m 9,7 km/h (2 Bft) 93,62 %
28.07.2023 16:18 22,4 C 26,7 C 17,2 C 94 % 1008,4 hPa 0,0 l/m 2 min 0 min 831 W/m 9,7 km/h (2 Bft) 97,87 %
28.07.2023 16:20 22,5 C 25,6 C 17,2 C 94 % 1008,4 hPa 0,0 l/m 2 min 0 min 536 W/m 12,9 km/h (3 Bft) 97,87 %
28.07.2023 16:22 22,4 C 24,4 C 16,7 C 93 % 1008,3 hPa 0,0 l/m 2 min 0 min 366 W/m 12,9 km/h (3 Bft) 97,87 %
28.07.2023 16:24 22,4 C 23,9 C 16,7 C 92 % 1008,3 hPa 0,0 l/m 0 min 0 min 318 W/m 12,9 km/h (3 Bft) 97,87 %
28.07.2023 16:26 22,5 C 23,3 C 16,7 C 92 % 1008,3 hPa 0,0 l/m 0 min 0 min 288 W/m 16,1 km/h (3 Bft) 97,87 %
28.07.2023 16:28 22,4 C 23,3 C 16,7 C 91 % 1008,3 hPa 0,0 l/m 0 min 0 min 328 W/m 6,4 km/h (2 Bft) 97,83 %
28.07.2023 16:30 22,4 C 23,3 C 16,7 C 91 % 1008,3 hPa 0,0 l/m 0 min 0 min 328 W/m 6,4 km/h (2 Bft) 97,87 %
28.07.2023 16:32 22,5 C 23,3 C 16,7 C 91 % 1008,3 hPa 0,0 l/m 2 min 0 min 344 W/m 6,4 km/h (2 Bft) 93,62 %
28.07.2023 16:34 22,6 C 23,9 C 16,7 C 91 % 1008,3 hPa 0,0 l/m 2 min 0 min 405 W/m 12,9 km/h (3 Bft) 97,87 %
28.07.2023 16:36 22,6 C 23,9 C 17,2 C 91 % 1008,2 hPa 0,0 l/m 2 min 0 min 434 W/m 6,4 km/h (2 Bft) 97,87 %
28.07.2023 16:38 22,7 C 23,9 C 16,7 C 90 % 1008,3 hPa 0,0 l/m 2 min 0 min 410 W/m 6,4 km/h (2 Bft) 100,00 %
28.07.2023 16:40 22,7 C 23,9 C 16,7 C 90 % 1008,3 hPa 0,0 l/m 2 min 0 min 386 W/m 6,4 km/h (2 Bft) 100,00 %
28.07.2023 16:42 22,8 C 24,4 C 17,2 C 90 % 1008,3 hPa 0,0 l/m 2 min 0 min 370 W/m 6,4 km/h (2 Bft) 100,00 %
28.07.2023 16:44 22,9 C 25,6 C 17,2 C 90 % 1008,4 hPa 0,0 l/m 2 min 0 min 621 W/m 6,4 km/h (2 Bft) 100,00 %
28.07.2023 16:46 23,1 C 25,0 C 17,2 C 89 % 1008,3 hPa 0,0 l/m 2 min 0 min 759 W/m 16,1 km/h (3 Bft) 100,00 %
28.07.2023 16:52 23,2 C 23,9 C 17,2 C 88 % 1008,3 hPa 0,0 l/m 5 min 0 min 335 W/m 6,4 km/h (2 Bft) 94,44 %
28.07.2023 16:57 23,3 C 23,9 C 17,2 C 87 % 1008,3 hPa 0,0 l/m 0 min 0 min 292 W/m 12,9 km/h (3 Bft) 100,00 %
28.07.2023 16:58 23,3 C 23,9 C 17,2 C 87 % 1008,3 hPa 0,0 l/m 0 min 0 min 257 W/m 9,7 km/h (2 Bft) 95,65 %
28.07.2023 17:00 23,3 C 23,3 C 16,7 C 87 % 1008,4 hPa 0,0 l/m 0 min 0 min 216 W/m 12,9 km/h (3 Bft) 100,00 %
28.07.2023 17:02 23,2 C 23,3 C 16,7 C 86 % 1008,4 hPa 0,0 l/m 0 min 0 min 255 W/m 16,1 km/h (3 Bft) 97,87 %
28.07.2023 17:04 23,2 C 23,3 C 16,7 C 86 % 1008,4 hPa 0,0 l/m 2 min 0 min 344 W/m 9,7 km/h (2 Bft) 100,00 %
28.07.2023 17:06 23,1 C 23,3 C 16,7 C 85 % 1008,4 hPa 0,0 l/m 2 min 0 min 364 W/m 19,3 km/h (3 Bft) 97,87 %
28.07.2023 17:08 23,1 C 23,3 C 16,7 C 85 % 1008,4 hPa 0,0 l/m 2 min 0 min 319 W/m 12,9 km/h (3 Bft) 100,00 %
28.07.2023 17:10 23,1 C 23,3 C 16,7 C 85 % 1008,4 hPa 0,0 l/m 0 min 0 min 267 W/m 16,1 km/h (3 Bft) 100,00 %
28.07.2023 17:12 23,0 C 22,8 C 16,7 C 85 % 1008,4 hPa 0,0 l/m 0 min 0 min 257 W/m 12,9 km/h (3 Bft) 97,87 %
28.07.2023 17:14 22,9 C 22,8 C 16,7 C 85 % 1008,4 hPa 0,0 l/m 0 min 0 min 256 W/m 19,3 km/h (3 Bft) 100,00 %
28.07.2023 17:16 22,9 C 22,8 C 16,7 C 85 % 1008,5 hPa 0,0 l/m 0 min 0 min 240 W/m 6,4 km/h (2 Bft) 100,00 %
28.07.2023 17:18 22,9 C 22,8 C 16,7 C 85 % 1008,5 hPa 0,0 l/m 0 min 0 min 203 W/m 16,1 km/h (3 Bft) 100,00 %
28.07.2023 17:20 22,8 C 22,8 C 16,7 C 85 % 1008,5 hPa 0,0 l/m 0 min 0 min 179 W/m 16,1 km/h (3 Bft) 100,00 %
28.07.2023 17:22 22,8 C 22,2 C 16,7 C 85 % 1008,5 hPa 0,0 l/m 0 min 0 min 166 W/m 12,9 km/h (3 Bft) 100,00 %
28.07.2023 17:24 22,8 C 22,2 C 16,7 C 86 % 1008,5 hPa 0,0 l/m 0 min 0 min 152 W/m 16,1 km/h (3 Bft) 100,00 %
28.07.2023 17:26 22,7 C 22,2 C 16,7 C 85 % 1008,4 hPa 0,0 l/m 0 min 0 min 136 W/m 22,5 km/h (4 Bft) 100,00 %
28.07.2023 17:28 22,7 C 22,2 C 16,7 C 86 % 1008,5 hPa 0,0 l/m 0 min 0 min 126 W/m 9,7 km/h (2 Bft) 100,00 %
28.07.2023 17:30 22,6 C 22,2 C 16,1 C 86 % 1008,4 hPa 0,0 l/m 0 min 0 min 118 W/m 9,7 km/h (2 Bft) 100,00 %
28.07.2023 17:32 22,6 C 21,7 C 16,1 C 86 % 1008,6 hPa 0,0 l/m 0 min 0 min 121 W/m 12,9 km/h (3 Bft) 100,00 %
28.07.2023 17:34 22,5 C 21,7 C 16,1 C 86 % 1008,6 hPa 0,0 l/m 0 min 0 min 132 W/m 16,1 km/h (3 Bft) 100,00 %
28.07.2023 17:36 22,4 C 21,7 C 16,1 C 86 % 1008,5 hPa 0,0 l/m 0 min 0 min 157 W/m 12,9 km/h (3 Bft) 97,83 %
28.07.2023 17:38 22,3 C 21,7 C 16,1 C 86 % 1008,5 hPa 0,0 l/m 0 min 0 min 176 W/m 12,9 km/h (3 Bft) 100,00 %
28.07.2023 17:40 22,2 C 21,7 C 16,1 C 87 % 1008,4 hPa 0,0 l/m 0 min 0 min 176 W/m 9,7 km/h (2 Bft) 97,87 %
28.07.2023 17:42 22,2 C 21,7 C 16,1 C 87 % 1008,5 hPa 0,0 l/m 0 min 0 min 178 W/m 16,1 km/h (3 Bft) 97,87 %
28.07.2023 17:44 22,1 C 21,7 C 16,1 C 86 % 1008,4 hPa 0,0 l/m 0 min 0 min 182 W/m 16,1 km/h (3 Bft) 97,87 %
28.07.2023 17:46 22,0 C 21,7 C 16,7 C 87 % 1008,4 hPa 0,0 l/m 0 min 0 min 177 W/m 19,3 km/h (3 Bft) 97,87 %
28.07.2023 17:48 22,0 C 21,7 C 16,7 C 87 % 1008,5 hPa 0,0 l/m 0 min 0 min 171 W/m 12,9 km/h (3 Bft) 95,65 %
28.07.2023 17:50 21,9 C 21,7 C 17,2 C 87 % 1008,4 hPa 0,0 l/m 0 min 0 min 163 W/m 6,4 km/h (2 Bft) 95,74 %
28.07.2023 17:52 21,9 C 21,7 C 17,2 C 88 % 1008,4 hPa 0,0 l/m 0 min 0 min 157 W/m 6,4 km/h (2 Bft) 97,87 %
28.07.2023 17:54 21,9 C 21,7 C 17,2 C 88 % 1008,4 hPa 0,0 l/m 0 min 0 min 181 W/m 6,4 km/h (2 Bft) 97,87 %
28.07.2023 17:56 21,9 C 22,2 C 17,2 C 88 % 1008,5 hPa 0,0 l/m 0 min 0 min 223 W/m 16,1 km/h (3 Bft) 97,87 %
28.07.2023 17:58 21,9 C 22,2 C 17,8 C 88 % 1008,5 hPa 0,0 l/m 0 min 0 min 242 W/m 12,9 km/h (3 Bft) 95,74 %
28.07.2023 18:00 21,9 C 22,8 C 17,8 C 88 % 1008,5 hPa 0,0 l/m 0 min 0 min 240 W/m 6,4 km/h (2 Bft) 97,83 %
28.07.2023 18:02 22,0 C 22,8 C 17,8 C 88 % 1008,4 hPa 0,0 l/m 2 min 0 min 269 W/m 6,4 km/h (2 Bft) 95,74 %
28.07.2023 18:04 22,0 C 22,2 C 17,8 C 88 % 1008,4 hPa 0,0 l/m 0 min 0 min 170 W/m 12,9 km/h (3 Bft) 95,92 %
28.07.2023 18:08 22,1 C 22,2 C 17,8 C 87 % 1008,4 hPa 0,0 l/m 0 min 0 min 136 W/m 3,2 km/h (1 Bft) 93,98 %
28.07.2023 18:10 22,1 C 22,2 C 17,8 C 87 % 1008,4 hPa 0,0 l/m 0 min 0 min 168 W/m 6,4 km/h (2 Bft) 95,74 %
28.07.2023 18:12 22,1 C 22,8 C 17,8 C 88 % 1008,4 hPa 0,0 l/m 0 min 0 min 192 W/m 6,4 km/h (2 Bft) 95,74 %
28.07.2023 18:14 22,2 C 22,8 C 17,8 C 88 % 1008,4 hPa 0,0 l/m 0 min 0 min 195 W/m 3,2 km/h (1 Bft) 95,74 %
28.07.2023 18:16 22,2 C 22,8 C 17,8 C 88 % 1008,4 hPa 0,0 l/m 0 min 0 min 199 W/m 3,2 km/h (1 Bft) 93,48 %
28.07.2023 18:18 22,2 C 23,3 C 17,8 C 87 % 1008,3 hPa 0,0 l/m 2 min 0 min 239 W/m 6,4 km/h (2 Bft) 95,74 %
28.07.2023 18:20 22,3 C 23,9 C 17,8 C 87 % 1008,4 hPa 0,0 l/m 2 min 0 min 270 W/m 3,2 km/h (1 Bft) 93,62 %
28.07.2023 18:22 22,3 C 25,6 C 18,3 C 87 % 1008,3 hPa 0,0 l/m 2 min 0 min 417 W/m 6,4 km/h (2 Bft) 95,74 %
28.07.2023 18:24 22,4 C 27,2 C 18,3 C 87 % 1008,3 hPa 0,0 l/m 2 min 0 min 535 W/m 6,4 km/h (2 Bft) 93,62 %
28.07.2023 18:26 22,6 C 28,3 C 18,3 C 88 % 1008,3 hPa 0,0 l/m 2 min 0 min 510 W/m 6,4 km/h (2 Bft) 95,74 %
28.07.2023 18:28 22,7 C 28,3 C 18,9 C 87 % 1008,3 hPa 0,0 l/m 2 min 0 min 466 W/m 9,7 km/h (2 Bft) 95,74 %
28.07.2023 18:30 22,8 C 28,3 C 18,9 C 87 % 1008,3 hPa 0,0 l/m 2 min 0 min 435 W/m 6,4 km/h (2 Bft) 95,65 %
28.07.2023 18:32 23,0 C 28,9 C 18,9 C 86 % 1008,3 hPa 0,0 l/m 2 min 0 min 413 W/m 6,4 km/h (2 Bft) 93,62 %
28.07.2023 18:34 23,2 C 28,9 C 18,9 C 86 % 1008,3 hPa 0,0 l/m 2 min 0 min 394 W/m 6,4 km/h (2 Bft) 93,62 %
28.07.2023 18:36 23,3 C 28,9 C 19,4 C 85 % 1008,3 hPa 0,0 l/m 2 min 0 min 391 W/m 9,7 km/h (2 Bft) 95,74 %
28.07.2023 18:38 23,4 C 27,8 C 19,4 C 84 % 1008,3 hPa 0,0 l/m 2 min 0 min 384 W/m 12,9 km/h (3 Bft) 95,74 %
28.07.2023 18:40 23,4 C 28,3 C 19,4 C 84 % 1008,3 hPa 0,0 l/m 2 min 0 min 374 W/m 9,7 km/h (2 Bft) 95,74 %
28.07.2023 18:42 23,6 C 28,9 C 18,9 C 84 % 1008,2 hPa 0,0 l/m 2 min 0 min 371 W/m 12,9 km/h (3 Bft) 97,83 %
28.07.2023 18:44 23,7 C 28,3 C 19,4 C 83 % 1008,2 hPa 0,0 l/m 2 min 0 min 342 W/m 12,9 km/h (3 Bft) 97,87 %
28.07.2023 18:46 23,8 C 28,9 C 19,4 C 83 % 1008,2 hPa 0,0 l/m 2 min 0 min 386 W/m 6,4 km/h (2 Bft) 97,87 %
28.07.2023 18:48 23,9 C 28,9 C 19,4 C 82 % 1008,2 hPa 0,0 l/m 2 min 0 min 407 W/m 6,4 km/h (2 Bft) 97,87 %
28.07.2023 18:50 23,9 C 29,4 C 19,4 C 82 % 1008,2 hPa 0,0 l/m 2 min 0 min 399 W/m 6,4 km/h (2 Bft) 95,74 %
28.07.2023 18:52 24,0 C 29,4 C 19,4 C 81 % 1008,1 hPa 0,0 l/m 2 min 0 min 379 W/m 9,7 km/h (2 Bft) 97,87 %
28.07.2023 18:54 24,1 C 28,9 C 19,4 C 80 % 1008,1 hPa 0,0 l/m 2 min 0 min 350 W/m 6,4 km/h (2 Bft) 97,87 %
28.07.2023 18:56 24,1 C 28,9 C 19,4 C 80 % 1008,1 hPa 0,0 l/m 2 min 0 min 355 W/m 3,2 km/h (1 Bft) 97,83 %
28.07.2023 18:58 24,2 C 28,3 C 19,4 C 80 % 1008,1 hPa 0,0 l/m 2 min 0 min 361 W/m 12,9 km/h (3 Bft) 97,87 %
28.07.2023 19:00 24,2 C 28,3 C 19,4 C 80 % 1008,1 hPa 0,0 l/m 2 min 0 min 362 W/m 9,7 km/h (2 Bft) 95,74 %
28.07.2023 19:02 24,2 C 27,8 C 18,9 C 80 % 1008,0 hPa 0,0 l/m 2 min 0 min 361 W/m 6,4 km/h (2 Bft) 97,87 %
28.07.2023 19:04 24,2 C 26,1 C 18,9 C 80 % 1008,1 hPa 0,0 l/m 2 min 0 min 317 W/m 9,7 km/h (2 Bft) 98,00 %
28.07.2023 19:06 24,2 C 25,0 C 18,9 C 80 % 1008,1 hPa 0,0 l/m 0 min 0 min 98 W/m 6,4 km/h (2 Bft) 96,55 %
28.07.2023 19:08 24,2 C 24,4 C 18,9 C 80 % 1008,1 hPa 0,0 l/m 0 min 0 min 108 W/m 3,2 km/h (1 Bft) 97,14 %
28.07.2023 19:10 24,2 C 23,9 C 18,9 C 80 % 1008,1 hPa 0,0 l/m 0 min 0 min 120 W/m 6,4 km/h (2 Bft) 97,87 %
28.07.2023 19:12 24,1 C 23,9 C 18,9 C 80 % 1008,1 hPa 0,0 l/m 0 min 0 min 113 W/m 9,7 km/h (2 Bft) 97,87 %
28.07.2023 19:14 24,1 C 23,3 C 18,9 C 80 % 1008,1 hPa 0,0 l/m 0 min 0 min 108 W/m 3,2 km/h (1 Bft) 97,87 %
28.07.2023 19:16 24,1 C 23,9 C 18,9 C 80 % 1008,1 hPa 0,0 l/m 0 min 0 min 118 W/m 9,7 km/h (2 Bft) 97,87 %
28.07.2023 19:18 23,9 C 23,9 C 18,9 C 80 % 1008,0 hPa 0,0 l/m 0 min 0 min 121 W/m 6,4 km/h (2 Bft) 95,74 %
28.07.2023 19:20 23,9 C 23,9 C 18,9 C 80 % 1007,9 hPa 0,0 l/m 0 min 0 min 134 W/m 6,4 km/h (2 Bft) 97,87 %
28.07.2023 19:22 23,8 C 23,9 C 18,9 C 81 % 1008,0 hPa 0,0 l/m 2 min 0 min 338 W/m 6,4 km/h (2 Bft) 97,83 %
28.07.2023 19:24 23,8 C 23,9 C 18,9 C 81 % 1007,9 hPa 0,0 l/m 2 min 0 min 333 W/m 6,4 km/h (2 Bft) 100,00 %
28.07.2023 19:26 23,8 C 23,9 C 18,9 C 81 % 1007,9 hPa 0,0 l/m 2 min 0 min 302 W/m 9,7 km/h (2 Bft) 100,00 %
28.07.2023 19:28 23,8 C 23,9 C 18,9 C 80 % 1007,9 hPa 0,0 l/m 2 min 0 min 255 W/m 12,9 km/h (3 Bft) 100,00 %
28.07.2023 19:30 23,8 C 23,3 C 18,9 C 80 % 1007,9 hPa 0,0 l/m 2 min 0 min 194 W/m 19,3 km/h (3 Bft) 97,87 %
28.07.2023 19:32 23,8 C 23,3 C 18,9 C 79 % 1007,9 hPa 0,0 l/m 2 min 0 min 172 W/m 12,9 km/h (3 Bft) 97,87 %
28.07.2023 19:34 23,8 C 23,3 C 18,9 C 80 % 1008,0 hPa 0,0 l/m 2 min 0 min 196 W/m 3,2 km/h (1 Bft) 100,00 %
28.07.2023 19:36 23,8 C 23,3 C 18,9 C 80 % 1008,0 hPa 0,0 l/m 2 min 0 min 183 W/m 16,1 km/h (3 Bft) 100,00 %
28.07.2023 19:38 23,8 C 23,3 C 18,9 C 79 % 1008,1 hPa 0,0 l/m 2 min 0 min 126 W/m 12,9 km/h (3 Bft) 100,00 %
28.07.2023 19:40 23,8 C 22,8 C 18,9 C 79 % 1008,0 hPa 0,0 l/m 0 min 0 min 64 W/m 9,7 km/h (2 Bft) 100,00 %
28.07.2023 19:42 23,8 C 22,8 C 18,3 C 79 % 1008,0 hPa 0,0 l/m 0 min 0 min 58 W/m 6,4 km/h (2 Bft) 100,00 %
28.07.2023 19:44 23,7 C 22,8 C 18,3 C 79 % 1008,1 hPa 0,0 l/m 0 min 0 min 51 W/m 6,4 km/h (2 Bft) 100,00 %
28.07.2023 19:46 23,7 C 22,8 C 18,3 C 79 % 1008,1 hPa 0,0 l/m 0 min 0 min 45 W/m 12,9 km/h (3 Bft) 100,00 %
28.07.2023 19:48 23,6 C 22,8 C 18,3 C 80 % 1008,1 hPa 0,0 l/m 0 min 0 min 46 W/m 3,2 km/h (1 Bft) 100,00 %
28.07.2023 19:50 23,6 C 22,8 C 18,3 C 80 % 1008,2 hPa 0,0 l/m 0 min 0 min 50 W/m 12,9 km/h (3 Bft) 100,00 %
28.07.2023 19:52 23,5 C 22,2 C 18,3 C 80 % 1008,1 hPa 0,0 l/m 0 min 0 min 42 W/m 3,2 km/h (1 Bft) 100,00 %
28.07.2023 19:54 23,5 C 22,2 C 18,3 C 80 % 1008,2 hPa 0,0 l/m 0 min 0 min 42 W/m 0,0 km/h (0 Bft) 97,87 %
28.07.2023 19:56 23,4 C 22,2 C 18,3 C 80 % 1008,2 hPa 0,0 l/m 0 min 0 min 49 W/m 19,3 km/h (3 Bft) 100,00 %
28.07.2023 19:58 23,4 C 22,2 C 18,3 C 80 % 1008,3 hPa 0,0 l/m 0 min 0 min 67 W/m 12,9 km/h (3 Bft) 97,87 %
28.07.2023 20:00 23,3 C 22,2 C 18,3 C 80 % 1008,3 hPa 0,0 l/m 0 min 0 min 57 W/m 6,4 km/h (2 Bft) 100,00 %
28.07.2023 20:02 23,3 C 22,2 C 18,3 C 80 % 1008,3 hPa 0,0 l/m 0 min 0 min 36 W/m 9,7 km/h (2 Bft) 100,00 %
28.07.2023 20:04 23,2 C 22,2 C 18,3 C 80 % 1008,3 hPa 0,0 l/m 0 min 0 min 32 W/m 16,1 km/h (3 Bft) 97,92 %
28.07.2023 20:06 23,1 C 22,2 C 18,3 C 80 % 1008,2 hPa 0,0 l/m 0 min 0 min 32 W/m 6,4 km/h (2 Bft) 96,55 %
28.07.2023 20:08 23,1 C 22,2 C 17,8 C 80 % 1008,3 hPa 0,0 l/m 0 min 0 min 32 W/m 12,9 km/h (3 Bft) 97,14 %
28.07.2023 20:10 23,1 C 22,2 C 17,8 C 80 % 1008,3 hPa 0,0 l/m 0 min 0 min 33 W/m 6,4 km/h (2 Bft) 97,87 %
28.07.2023 20:12 23,0 C 21,7 C 17,8 C 81 % 1008,2 hPa 0,0 l/m 0 min 0 min 36 W/m 3,2 km/h (1 Bft) 95,74 %
28.07.2023 20:14 23,0 C 21,7 C 17,8 C 81 % 1008,2 hPa 0,0 l/m 0 min 0 min 38 W/m 3,2 km/h (1 Bft) 95,74 %
28.07.2023 20:16 22,9 C 21,7 C 17,8 C 81 % 1008,3 hPa 0,0 l/m 0 min 0 min 35 W/m 6,4 km/h (2 Bft) 95,74 %
28.07.2023 20:18 22,9 C 21,7 C 17,8 C 81 % 1008,3 hPa 0,0 l/m 0 min 0 min 35 W/m 3,2 km/h (1 Bft) 93,48 %
28.07.2023 20:20 22,9 C 21,7 C 17,8 C 82 % 1008,2 hPa 0,0 l/m 0 min 0 min 36 W/m 3,2 km/h (1 Bft) 93,62 %
28.07.2023 20:22 22,9 C 21,7 C 17,2 C 82 % 1008,3 hPa 0,0 l/m 0 min 0 min 39 W/m 3,2 km/h (1 Bft) 93,62 %
28.07.2023 20:24 22,8 C 21,7 C 17,2 C 82 % 1008,2 hPa 0,0 l/m 0 min 0 min 40 W/m 3,2 km/h (1 Bft) 95,74 %
28.07.2023 20:26 22,8 C 21,7 C 17,2 C 82 % 1008,2 hPa 0,0 l/m 0 min 0 min 39 W/m 9,7 km/h (2 Bft) 95,74 %
28.07.2023 20:28 22,7 C 21,7 C 17,2 C 82 % 1008,3 hPa 0,0 l/m 0 min 0 min 38 W/m 6,4 km/h (2 Bft) 95,74 %
28.07.2023 20:30 22,7 C 21,7 C 17,2 C 82 % 1008,2 hPa 0,0 l/m 0 min 0 min 37 W/m 3,2 km/h (1 Bft) 95,74 %
28.07.2023 20:32 22,7 C 21,7 C 17,2 C 83 % 1008,2 hPa 0,0 l/m 0 min 0 min 35 W/m 3,2 km/h (1 Bft) 95,65 %
28.07.2023 20:34 22,7 C 21,7 C 17,2 C 83 % 1008,2 hPa 0,0 l/m 0 min 0 min 33 W/m 3,2 km/h (1 Bft) 95,74 %
28.07.2023 20:36 22,6 C 21,1 C 17,2 C 83 % 1008,2 hPa 0,0 l/m 0 min 0 min 32 W/m 6,4 km/h (2 Bft) 89,36 %
28.07.2023 20:38 22,6 C 21,1 C 17,2 C 83 % 1008,2 hPa 0,0 l/m 0 min 0 min 30 W/m 3,2 km/h (1 Bft) 97,87 %
28.07.2023 20:40 22,6 C 21,1 C 17,2 C 83 % 1008,2 hPa 0,0 l/m 0 min 0 min 27 W/m 3,2 km/h (1 Bft) 97,87 %
28.07.2023 20:42 22,6 C 21,1 C 17,2 C 83 % 1008,2 hPa 0,0 l/m 0 min 0 min 26 W/m 0,0 km/h (0 Bft) 97,87 %
28.07.2023 20:44 22,5 C 21,1 C 17,2 C 83 % 1008,2 hPa 0,0 l/m 0 min 0 min 25 W/m 3,2 km/h (1 Bft) 95,65 %
28.07.2023 20:46 22,5 C 21,1 C 17,2 C 83 % 1008,2 hPa 0,0 l/m 0 min 0 min 23 W/m 3,2 km/h (1 Bft) 97,87 %
28.07.2023 20:48 22,4 C 21,1 C 17,2 C 84 % 1008,3 hPa 0,0 l/m 0 min 0 min 21 W/m 3,2 km/h (1 Bft) 97,87 %
28.07.2023 20:50 22,4 C 21,1 C 17,2 C 83 % 1008,3 hPa 0,0 l/m 0 min 0 min 21 W/m 0,0 km/h (0 Bft) 97,87 %
28.07.2023 20:52 22,4 C 21,1 C 16,7 C 83 % 1008,3 hPa 0,0 l/m 0 min 0 min 21 W/m 0,0 km/h (0 Bft) 97,87 %
28.07.2023 20:54 22,4 C 21,1 C 16,7 C 84 % 1008,3 hPa 0,0 l/m 0 min 0 min 21 W/m 0,0 km/h (0 Bft) 91,49 %
28.07.2023 20:56 22,3 C 21,1 C 16,7 C 84 % 1008,3 hPa 0,0 l/m 0 min 0 min 21 W/m 0,0 km/h (0 Bft) 97,87 %
28.07.2023 20:58 22,3 C 21,1 C 16,7 C 84 % 1008,3 hPa 0,0 l/m 0 min 0 min 19 W/m 3,2 km/h (1 Bft) 100,00 %
28.07.2023 21:00 22,3 C 20,6 C 16,7 C 84 % 1008,4 hPa 0,0 l/m 0 min 0 min 17 W/m 0,0 km/h (0 Bft) 100,00 %
28.07.2023 21:00 22,3 C 20,6 C 16,7 C 84 % 1008,4 hPa 0,0 l/m 0 min 0 min 18 W/m 3,2 km/h (1 Bft) 100,00 %
28.07.2023 21:10 22,2 C 20,6 C 16,7 C 85 % 1008,5 hPa 0,0 l/m 0 min 0 min 10 W/m 3,2 km/h (1 Bft) 80,00 %
28.07.2023 21:12 22,2 C 20,6 C 16,7 C 85 % 1008,5 hPa 0,0 l/m 0 min 0 min 9 W/m 0,0 km/h (0 Bft) 97,87 %
28.07.2023 21:14 22,1 C 20,6 C 16,7 C 85 % 1008,4 hPa 0,0 l/m 0 min 0 min 8 W/m 0,0 km/h (0 Bft) 100,00 %
28.07.2023 21:16 22,1 C 20,6 C 16,7 C 85 % 1008,3 hPa 0,0 l/m 0 min 0 min 6 W/m 0,0 km/h (0 Bft) 97,87 %
28.07.2023 21:18 22,1 C 20,6 C 16,7 C 86 % 1008,3 hPa 0,0 l/m 0 min 0 min 5 W/m 0,0 km/h (0 Bft) 97,87 %
28.07.2023 21:20 22,1 C 20,6 C 16,7 C 86 % 1008,2 hPa 0,0 l/m 0 min 0 min 2 W/m 0,0 km/h (0 Bft) 95,74 %
28.07.2023 21:22 22,1 C 20,6 C 16,7 C 86 % 1008,2 hPa 0,0 l/m 0 min 0 min 0 W/m 3,2 km/h (1 Bft) 97,87 %
28.07.2023 21:24 22,0 C 20,6 C 16,7 C 86 % 1008,3 hPa 0,0 l/m 0 min 0 min 0 W/m 3,2 km/h (1 Bft) 100,00 %
28.07.2023 21:26 22,0 C 20,6 C 16,7 C 86 % 1008,3 hPa 0,0 l/m 0 min 0 min 0 W/m 0,0 km/h (0 Bft) 100,00 %
28.07.2023 21:28 21,9 C 20,6 C 16,7 C 86 % 1008,3 hPa 0,0 l/m 0 min 0 min 0 W/m 0,0 km/h (0 Bft) 100,00 %
28.07.2023 21:30 21,9 C 20,0 C 16,7 C 86 % 1008,4 hPa 0,0 l/m 0 min 0 min 0 W/m 0,0 km/h (0 Bft) 97,87 %
28.07.2023 21:32 21,9 C 20,0 C 16,7 C 86 % 1008,4 hPa 0,0 l/m 0 min 0 min 0 W/m 0,0 km/h (0 Bft) 100,00 %
28.07.2023 21:34 21,9 C 20,0 C 16,7 C 86 % 1008,3 hPa 0,0 l/m 0 min 0 min 0 W/m 3,2 km/h (1 Bft) 97,87 %
28.07.2023 21:36 21,8 C 20,0 C 16,7 C 87 % 1008,3 hPa 0,0 l/m 0 min 0 min 0 W/m 3,2 km/h (1 Bft) 97,83 %
28.07.2023 21:38 21,8 C 20,0 C 16,7 C 87 % 1008,3 hPa 0,0 l/m 0 min 0 min 0 W/m 3,2 km/h (1 Bft) 97,87 %
28.07.2023 21:40 21,8 C 20,0 C 16,7 C 87 % 1008,3 hPa 0,0 l/m 0 min 0 min 0 W/m 3,2 km/h (1 Bft) 97,87 %
28.07.2023 21:42 21,8 C 20,0 C 16,7 C 87 % 1008,4 hPa 0,0 l/m 0 min 0 min 0 W/m 3,2 km/h (1 Bft) 95,74 %
28.07.2023 21:44 21,7 C 20,0 C 16,7 C 87 % 1008,3 hPa 0,0 l/m 0 min 0 min 0 W/m 0,0 km/h (0 Bft) 97,87 %
28.07.2023 21:46 21,7 C 20,0 C 16,7 C 87 % 1008,3 hPa 0,0 l/m 0 min 0 min 0 W/m 6,4 km/h (2 Bft) 97,87 %
28.07.2023 21:48 21,7 C 20,0 C 16,7 C 88 % 1008,3 hPa 0,0 l/m 0 min 0 min 0 W/m 6,4 km/h (2 Bft) 95,65 %
28.07.2023 21:50 21,6 C 20,0 C 16,7 C 88 % 1008,3 hPa 0,0 l/m 0 min 0 min 0 W/m 3,2 km/h (1 Bft) 93,62 %
28.07.2023 21:52 21,6 C 20,0 C 16,7 C 88 % 1008,2 hPa 0,0 l/m 0 min 0 min 0 W/m 3,2 km/h (1 Bft) 95,74 %
28.07.2023 21:54 21,6 C 20,0 C 16,7 C 88 % 1008,2 hPa 0,0 l/m 0 min 0 min 0 W/m 3,2 km/h (1 Bft) 97,87 %
28.07.2023 21:56 21,6 C 20,0 C 16,7 C 88 % 1008,3 hPa 0,0 l/m 0 min 0 min 0 W/m 3,2 km/h (1 Bft) 95,74 %
28.07.2023 21:58 21,5 C 20,0 C 16,7 C 88 % 1008,3 hPa 0,0 l/m 0 min 0 min 0 W/m 3,2 km/h (1 Bft) 97,87 %
28.07.2023 22:00 21,5 C 20,0 C 16,7 C 88 % 1008,3 hPa 0,0 l/m 0 min 0 min 0 W/m 3,2 km/h (1 Bft) 95,74 %
28.07.2023 22:02 21,4 C 20,0 C 16,7 C 88 % 1008,3 hPa 0,0 l/m 0 min 0 min 0 W/m 0,0 km/h (0 Bft) 95,65 %
28.07.2023 22:04 21,4 C 20,0 C 16,7 C 89 % 1008,3 hPa 0,0 l/m 0 min 0 min 0 W/m 0,0 km/h (0 Bft) 95,74 %
28.07.2023 22:06 21,4 C 20,0 C 16,7 C 89 % 1008,4 hPa 0,0 l/m 0 min 0 min 0 W/m 3,2 km/h (1 Bft) 95,74 %
28.07.2023 22:08 21,4 C 20,0 C 16,7 C 89 % 1008,4 hPa 0,0 l/m 0 min 0 min 0 W/m 3,2 km/h (1 Bft) 95,74 %
28.07.2023 22:10 21,3 C 20,0 C 16,7 C 89 % 1008,4 hPa 0,0 l/m 0 min 0 min 0 W/m 3,2 km/h (1 Bft) 95,74 %
28.07.2023 22:12 21,3 C 20,0 C 16,7 C 89 % 1008,4 hPa 0,0 l/m 0 min 0 min 0 W/m 3,2 km/h (1 Bft) 95,74 %
28.07.2023 22:14 21,3 C 20,0 C 16,7 C 89 % 1008,5 hPa 0,0 l/m 0 min 0 min 0 W/m 3,2 km/h (1 Bft) 95,65 %
28.07.2023 22:16 21,3 C 20,0 C 16,7 C 89 % 1008,5 hPa 0,0 l/m 0 min 0 min 0 W/m 3,2 km/h (1 Bft) 95,74 %
28.07.2023 22:18 21,3 C 20,0 C 16,7 C 89 % 1008,5 hPa 0,0 l/m 0 min 0 min 0 W/m 3,2 km/h (1 Bft) 95,74 %
28.07.2023 22:20 21,3 C 20,0 C 16,7 C 89 % 1008,5 hPa 0,0 l/m 0 min 0 min 0 W/m 3,2 km/h (1 Bft) 97,87 %
28.07.2023 22:22 21,3 C 20,0 C 16,7 C 89 % 1008,5 hPa 0,0 l/m 0 min 0 min 0 W/m 6,4 km/h (2 Bft) 97,87 %
28.07.2023 22:24 21,2 C 20,0 C 16,7 C 89 % 1008,5 hPa 0,0 l/m 0 min 0 min 0 W/m 3,2 km/h (1 Bft) 97,87 %
28.07.2023 22:26 21,2 C 20,0 C 16,7 C 89 % 1008,5 hPa 0,0 l/m 0 min 0 min 0 W/m 3,2 km/h (1 Bft) 97,83 %
28.07.2023 22:28 21,2 C 20,0 C 16,7 C 90 % 1008,6 hPa 0,0 l/m 0 min 0 min 0 W/m 12,9 km/h (3 Bft) 93,62 %
28.07.2023 22:30 21,2 C 20,0 C 16,7 C 90 % 1008,6 hPa 0,0 l/m 0 min 0 min 0 W/m 16,1 km/h (3 Bft) 97,87 %
28.07.2023 22:32 21,2 C 20,0 C 16,7 C 90 % 1008,6 hPa 0,0 l/m 0 min 0 min 0 W/m 12,9 km/h (3 Bft) 97,87 %
28.07.2023 22:34 21,2 C 20,0 C 16,7 C 90 % 1008,6 hPa 0,0 l/m 0 min 0 min 0 W/m 6,4 km/h (2 Bft) 100,00 %
28.07.2023 22:36 21,2 C 20,0 C 16,7 C 90 % 1008,6 hPa 0,0 l/m 0 min 0 min 0 W/m 9,7 km/h (2 Bft) 100,00 %
28.07.2023 22:38 21,1 C 20,0 C 16,7 C 91 % 1008,6 hPa 0,0 l/m 0 min 0 min 0 W/m 16,1 km/h (3 Bft) 100,00 %
28.07.2023 22:40 21,1 C 20,0 C 16,7 C 91 % 1008,6 hPa 0,0 l/m 0 min 0 min 0 W/m 12,9 km/h (3 Bft) 100,00 %
28.07.2023 22:42 21,1 C 20,0 C 16,1 C 91 % 1008,6 hPa 0,0 l/m 0 min 2 min 0 W/m 6,4 km/h (2 Bft) 100,00 %
28.07.2023 22:44 21,1 C 19,4 C 16,1 C 91 % 1008,6 hPa 0,0 l/m 0 min 2 min 0 W/m 12,9 km/h (3 Bft) 100,00 %
28.07.2023 22:46 21,0 C 19,4 C 16,1 C 92 % 1008,5 hPa 0,0 l/m 0 min 0 min 0 W/m 6,4 km/h (2 Bft) 100,00 %
28.07.2023 22:48 21,0 C 19,4 C 16,1 C 92 % 1008,6 hPa 0,0 l/m 0 min 0 min 0 W/m 6,4 km/h (2 Bft) 100,00 %
28.07.2023 22:50 20,9 C 19,4 C 16,1 C 92 % 1008,6 hPa 0,0 l/m 0 min 0 min 0 W/m 12,9 km/h (3 Bft) 100,00 %
28.07.2023 22:52 20,9 C 19,4 C 16,1 C 92 % 1008,7 hPa 0,0 l/m 0 min 0 min 0 W/m 16,1 km/h (3 Bft) 100,00 %
28.07.2023 22:54 20,8 C 19,4 C 15,6 C 92 % 1008,7 hPa 0,0 l/m 0 min 0 min 0 W/m 9,7 km/h (2 Bft) 100,00 %
28.07.2023 22:56 20,8 C 19,4 C 15,6 C 92 % 1008,7 hPa 0,0 l/m 0 min 0 min 0 W/m 12,9 km/h (3 Bft) 100,00 %
28.07.2023 22:58 20,7 C 19,4 C 15,6 C 93 % 1008,7 hPa 0,0 l/m 0 min 2 min 0 W/m 9,7 km/h (2 Bft) 97,87 %
28.07.2023 23:00 20,7 C 19,4 C 15,6 C 93 % 1008,7 hPa 0,2 l/m 0 min 2 min 0 W/m 12,9 km/h (3 Bft) 97,87 %
28.07.2023 23:02 20,7 C 18,9 C 15,6 C 93 % 1008,7 hPa 0,2 l/m 0 min 2 min 0 W/m 6,4 km/h (2 Bft) 97,87 %
28.07.2023 23:04 20,6 C 18,9 C 15,6 C 93 % 1008,8 hPa 0,0 l/m 0 min 2 min 0 W/m 3,2 km/h (1 Bft) 95,12 %
28.07.2023 23:06 20,6 C 18,9 C 15,6 C 93 % 1008,7 hPa 0,0 l/m 0 min 2 min 0 W/m 9,7 km/h (2 Bft) 95,74 %
28.07.2023 23:08 20,6 C 18,9 C 15,6 C 94 % 1008,7 hPa 0,0 l/m 0 min 0 min 0 W/m 12,9 km/h (3 Bft) 97,87 %
28.07.2023 23:10 20,6 C 18,9 C 15,0 C 94 % 1008,7 hPa 0,2 l/m 0 min 0 min 0 W/m 9,7 km/h (2 Bft) 97,87 %
28.07.2023 23:12 20,5 C 18,9 C 15,0 C 94 % 1008,7 hPa 0,0 l/m 0 min 2 min 0 W/m 12,9 km/h (3 Bft) 95,74 %
28.07.2023 23:14 20,5 C 18,9 C 15,0 C 94 % 1008,7 hPa 0,0 l/m 0 min 0 min 0 W/m 6,4 km/h (2 Bft) 97,87 %
28.07.2023 23:16 20,4 C 18,9 C 15,0 C 94 % 1008,8 hPa 0,0 l/m 0 min 0 min 0 W/m 9,7 km/h (2 Bft) 97,83 %
28.07.2023 23:18 20,4 C 18,9 C 15,0 C 94 % 1008,7 hPa 0,0 l/m 0 min 0 min 0 W/m 6,4 km/h (2 Bft) 97,87 %
28.07.2023 23:20 20,3 C 18,9 C 15,0 C 94 % 1008,7 hPa 0,0 l/m 0 min 2 min 0 W/m 9,7 km/h (2 Bft) 97,87 %
28.07.2023 23:22 20,3 C 18,9 C 15,0 C 94 % 1008,7 hPa 0,0 l/m 0 min 0 min 0 W/m 16,1 km/h (3 Bft) 97,87 %
28.07.2023 23:24 20,2 C 18,9 C 15,0 C 94 % 1008,8 hPa 0,0 l/m 0 min 0 min 0 W/m 6,4 km/h (2 Bft) 97,87 %
28.07.2023 23:26 20,2 C 18,9 C 15,0 C 94 % 1008,8 hPa 0,0 l/m 0 min 0 min 0 W/m 3,2 km/h (1 Bft) 97,87 %
28.07.2023 23:28 20,2 C 18,9 C 15,0 C 95 % 1008,8 hPa 0,0 l/m 0 min 0 min 0 W/m 0,0 km/h (0 Bft) 95,74 %
28.07.2023 23:30 20,2 C 18,9 C 15,0 C 95 % 1008,9 hPa 0,0 l/m 0 min 0 min 0 W/m 0,0 km/h (0 Bft) 97,83 %
28.07.2023 23:32 20,2 C 18,9 C 15,0 C 95 % 1008,8 hPa 0,0 l/m 0 min 0 min 0 W/m 3,2 km/h (1 Bft) 97,87 %
28.07.2023 23:34 20,1 C 18,9 C 15,0 C 95 % 1008,8 hPa 0,0 l/m 0 min 0 min 0 W/m 6,4 km/h (2 Bft) 97,87 %
28.07.2023 23:36 20,1 C 18,9 C 15,0 C 95 % 1008,8 hPa 0,0 l/m 0 min 0 min 0 W/m 3,2 km/h (1 Bft) 97,87 %
28.07.2023 23:38 20,1 C 18,9 C 15,0 C 95 % 1008,8 hPa 0,0 l/m 0 min 0 min 0 W/m 0,0 km/h (0 Bft) 93,62 %
28.07.2023 23:40 20,1 C 18,9 C 15,0 C 95 % 1008,7 hPa 0,0 l/m 0 min 0 min 0 W/m 0,0 km/h (0 Bft) 95,74 %
28.07.2023 23:42 20,1 C 18,9 C 15,0 C 95 % 1008,6 hPa 0,0 l/m 0 min 0 min 0 W/m 0,0 km/h (0 Bft) 98,08 %
28.07.2023 23:44 20,0 C 18,9 C 15,0 C 95 % 1008,6 hPa 0,0 l/m 0 min 0 min 0 W/m 0,0 km/h (0 Bft) 95,74 %
28.07.2023 23:46 20,0 C 18,9 C 15,0 C 95 % 1008,7 hPa 0,0 l/m 0 min 0 min 0 W/m 6,4 km/h (2 Bft) 100,00 %
28.07.2023 23:48 19,9 C 18,9 C 15,0 C 95 % 1008,6 hPa 0,0 l/m 0 min 0 min 0 W/m 3,2 km/h (1 Bft) 97,87 %
28.07.2023 23:50 19,9 C 18,9 C 15,0 C 95 % 1008,6 hPa 0,0 l/m 0 min 0 min 0 W/m 9,7 km/h (2 Bft) 97,87 %
28.07.2023 23:52 19,9 C 18,3 C 15,0 C 95 % 1008,6 hPa 0,0 l/m 0 min 0 min 0 W/m 0,0 km/h (0 Bft) 97,87 %
28.07.2023 23:54 19,9 C 18,3 C 15,0 C 95 % 1008,6 hPa 0,0 l/m 0 min 0 min 0 W/m 0,0 km/h (0 Bft) 100,00 %
28.07.2023 23:56 19,9 C 18,3 C 15,0 C 95 % 1008,7 hPa 0,0 l/m 0 min 0 min 0 W/m 0,0 km/h (0 Bft) 94,83 %
28.07.2023 23:58 19,8 C 18,3 C 15,0 C 95 % 1008,6 hPa 0,0 l/m 0 min 0 min 0 W/m 3,2 km/h (1 Bft) 95,74 %
_ Min-Zeit 00:28 04:10 00:00 19:32 00:24 - - - - 03:38 03:26
Minimum _ 17,2 C 16,1 C 13,3 C 79 % 1005,7 hPa - - - - 0,0 km/h (0 Bft) 57,45 %
_ Max-Zeit 18:58 18:50 14:22 05:52 23:30 04:16 16:52 04:08 13:48 15:36 00:00
Maximum _ 24,2 C 29,4 C 20,0 C 100 % 1008,9 hPa 0,2 l/m 5 min 2 min 935 W/m 25,7 km/h
SW (4 Bft)
100,00 %
Durchschnitt _ 20,0 C 19,9 C 15,7 C 93 % 1007,5 hPa #2,8 l/m #3:01 h #1:12 h 201 W/m 8,5 km/h (2 Bft) 97,16 %
© 2023 W. Hausmann